Wetterdaten: Montag, 19.08.2019
Datum Zeit Temp. Aussen Temp. o. S. +5cm Feuchte Auss Luftdruck Regen Sonnenschein Regendauer Solar Windben Empfang
19.08.2019 00:00 16,6 C 15,0 C 14,4 C 90 % 1016,2 hPa 0,0 l/m 0 min 0 min 0 W/m 3,2 km/h (1 Bft) 97,87 %
19.08.2019 00:02 16,6 C 15,0 C 14,4 C 90 % 1016,2 hPa 0,0 l/m 0 min 0 min 0 W/m 6,4 km/h (2 Bft) 97,67 %
19.08.2019 00:04 16,6 C 15,0 C 14,4 C 89 % 1016,3 hPa 0,0 l/m 0 min 0 min 0 W/m 6,4 km/h (2 Bft) 95,74 %
19.08.2019 00:08 16,4 C 15,0 C 14,4 C 89 % 1016,3 hPa 0,0 l/m 0 min 0 min 0 W/m 9,7 km/h (2 Bft) 97,87 %
19.08.2019 00:10 16,4 C 15,0 C 14,4 C 89 % 1016,3 hPa 0,0 l/m 0 min 0 min 0 W/m 6,4 km/h (2 Bft) 97,83 %
19.08.2019 00:12 16,3 C 15,0 C 14,4 C 88 % 1016,3 hPa 0,0 l/m 0 min 0 min 0 W/m 6,4 km/h (2 Bft) 100,00 %
19.08.2019 00:14 16,3 C 15,0 C 14,4 C 88 % 1016,2 hPa 0,0 l/m 0 min 0 min 0 W/m 9,7 km/h (2 Bft) 100,00 %
19.08.2019 00:16 16,2 C 15,0 C 14,4 C 88 % 1016,2 hPa 0,0 l/m 0 min 0 min 0 W/m 6,4 km/h (2 Bft) 100,00 %
19.08.2019 00:18 16,2 C 15,0 C 14,4 C 88 % 1016,1 hPa 0,0 l/m 0 min 0 min 0 W/m 3,2 km/h (1 Bft) 100,00 %
19.08.2019 00:20 16,2 C 15,0 C 13,9 C 87 % 1016,2 hPa 0,0 l/m 0 min 0 min 0 W/m 3,2 km/h (1 Bft) 100,00 %
19.08.2019 00:22 16,1 C 15,0 C 13,9 C 87 % 1016,2 hPa 0,0 l/m 0 min 0 min 0 W/m 3,2 km/h (1 Bft) 100,00 %
19.08.2019 00:24 16,1 C 14,4 C 13,9 C 87 % 1016,1 hPa 0,0 l/m 0 min 0 min 0 W/m 3,2 km/h (1 Bft) 95,74 %
19.08.2019 00:26 16,1 C 14,4 C 13,9 C 87 % 1016,1 hPa 0,0 l/m 0 min 0 min 0 W/m 3,2 km/h (1 Bft) 100,00 %
19.08.2019 00:28 16,0 C 14,4 C 13,3 C 87 % 1016,1 hPa 0,0 l/m 0 min 0 min 0 W/m 3,2 km/h (1 Bft) 100,00 %
19.08.2019 00:30 16,0 C 14,4 C 13,3 C 87 % 1016,1 hPa 0,0 l/m 0 min 0 min 0 W/m 3,2 km/h (1 Bft) 100,00 %
19.08.2019 00:32 16,0 C 14,4 C 13,9 C 87 % 1016,1 hPa 0,0 l/m 0 min 0 min 0 W/m 6,4 km/h (2 Bft) 100,00 %
19.08.2019 00:34 15,9 C 14,4 C 13,9 C 87 % 1016,2 hPa 0,0 l/m 0 min 0 min 0 W/m 6,4 km/h (2 Bft) 100,00 %
19.08.2019 00:36 15,9 C 14,4 C 13,9 C 87 % 1016,2 hPa 0,0 l/m 0 min 0 min 0 W/m 6,4 km/h (2 Bft) 100,00 %
19.08.2019 00:38 15,9 C 14,4 C 13,9 C 87 % 1016,1 hPa 0,0 l/m 0 min 0 min 0 W/m 6,4 km/h (2 Bft) 100,00 %
19.08.2019 00:40 15,8 C 14,4 C 13,9 C 87 % 1016,1 hPa 0,0 l/m 0 min 0 min 0 W/m 3,2 km/h (1 Bft) 97,87 %
19.08.2019 00:42 15,8 C 14,4 C 13,9 C 87 % 1016,1 hPa 0,0 l/m 0 min 0 min 0 W/m 6,4 km/h (2 Bft) 100,00 %
19.08.2019 00:44 15,8 C 14,4 C 13,9 C 87 % 1016,1 hPa 0,0 l/m 0 min 0 min 0 W/m 3,2 km/h (1 Bft) 100,00 %
19.08.2019 00:46 15,8 C 14,4 C 13,9 C 87 % 1016,2 hPa 0,0 l/m 0 min 0 min 0 W/m 9,7 km/h (2 Bft) 100,00 %
19.08.2019 00:48 15,8 C 14,4 C 13,9 C 87 % 1016,2 hPa 0,0 l/m 0 min 0 min 0 W/m 6,4 km/h (2 Bft) 100,00 %
19.08.2019 00:50 15,7 C 14,4 C 13,9 C 88 % 1016,2 hPa 0,0 l/m 0 min 0 min 0 W/m 3,2 km/h (1 Bft) 97,87 %
19.08.2019 00:52 15,7 C 14,4 C 13,9 C 88 % 1016,2 hPa 0,0 l/m 0 min 0 min 0 W/m 6,4 km/h (2 Bft) 100,00 %
19.08.2019 00:54 15,7 C 14,4 C 13,9 C 88 % 1016,2 hPa 0,0 l/m 0 min 0 min 0 W/m 6,4 km/h (2 Bft) 97,87 %
19.08.2019 00:56 15,7 C 14,4 C 13,9 C 88 % 1016,1 hPa 0,0 l/m 0 min 0 min 0 W/m 6,4 km/h (2 Bft) 100,00 %
19.08.2019 00:58 15,7 C 14,4 C 13,9 C 88 % 1016,1 hPa 0,0 l/m 0 min 0 min 0 W/m 6,4 km/h (2 Bft) 97,87 %
19.08.2019 01:00 15,7 C 14,4 C 13,9 C 88 % 1016,1 hPa 0,0 l/m 0 min 0 min 0 W/m 9,7 km/h (2 Bft) 97,87 %
19.08.2019 01:02 15,6 C 14,4 C 13,9 C 88 % 1016,1 hPa 0,0 l/m 0 min 0 min 0 W/m 9,7 km/h (2 Bft) 97,87 %
19.08.2019 01:04 15,6 C 14,4 C 13,9 C 87 % 1016,2 hPa 0,0 l/m 0 min 0 min 0 W/m 6,4 km/h (2 Bft) 97,87 %
19.08.2019 01:06 15,6 C 14,4 C 13,9 C 87 % 1016,1 hPa 0,0 l/m 0 min 0 min 0 W/m 9,7 km/h (2 Bft) 97,87 %
19.08.2019 01:08 15,6 C 14,4 C 13,9 C 87 % 1016,2 hPa 0,0 l/m 0 min 0 min 0 W/m 12,9 km/h (3 Bft) 95,65 %
19.08.2019 01:10 15,5 C 14,4 C 13,9 C 87 % 1016,2 hPa 0,0 l/m 0 min 0 min 0 W/m 9,7 km/h (2 Bft) 97,87 %
19.08.2019 01:12 15,5 C 14,4 C 13,9 C 87 % 1016,3 hPa 0,0 l/m 0 min 0 min 0 W/m 16,1 km/h (3 Bft) 97,87 %
19.08.2019 01:14 15,4 C 14,4 C 13,3 C 87 % 1016,3 hPa 0,0 l/m 0 min 0 min 0 W/m 9,7 km/h (2 Bft) 97,87 %
19.08.2019 01:16 15,4 C 14,4 C 13,3 C 87 % 1016,3 hPa 0,0 l/m 0 min 0 min 0 W/m 9,7 km/h (2 Bft) 97,87 %
19.08.2019 01:18 15,4 C 14,4 C 13,3 C 87 % 1016,3 hPa 0,0 l/m 0 min 0 min 0 W/m 6,4 km/h (2 Bft) 97,87 %
19.08.2019 01:20 15,4 C 14,4 C 13,3 C 87 % 1016,3 hPa 0,0 l/m 0 min 0 min 0 W/m 6,4 km/h (2 Bft) 97,83 %
19.08.2019 01:22 15,4 C 14,4 C 13,3 C 86 % 1016,3 hPa 0,0 l/m 0 min 0 min 0 W/m 6,4 km/h (2 Bft) 97,87 %
19.08.2019 01:24 15,4 C 14,4 C 13,3 C 86 % 1016,3 hPa 0,0 l/m 0 min 0 min 0 W/m 9,7 km/h (2 Bft) 97,87 %
19.08.2019 01:26 15,3 C 14,4 C 13,3 C 86 % 1016,4 hPa 0,0 l/m 0 min 0 min 0 W/m 6,4 km/h (2 Bft) 97,87 %
19.08.2019 01:28 15,3 C 14,4 C 13,9 C 86 % 1016,3 hPa 0,0 l/m 0 min 0 min 0 W/m 6,4 km/h (2 Bft) 95,74 %
19.08.2019 01:30 15,3 C 14,4 C 13,3 C 86 % 1016,3 hPa 0,0 l/m 0 min 0 min 0 W/m 6,4 km/h (2 Bft) 97,87 %
19.08.2019 01:32 15,3 C 14,4 C 13,3 C 86 % 1016,3 hPa 0,0 l/m 0 min 0 min 0 W/m 9,7 km/h (2 Bft) 97,83 %
19.08.2019 01:34 15,3 C 14,4 C 13,3 C 86 % 1016,4 hPa 0,0 l/m 0 min 0 min 0 W/m 9,7 km/h (2 Bft) 95,74 %
19.08.2019 01:36 15,2 C 14,4 C 13,3 C 86 % 1016,4 hPa 0,0 l/m 0 min 0 min 0 W/m 9,7 km/h (2 Bft) 95,74 %
19.08.2019 01:38 15,2 C 14,4 C 13,3 C 85 % 1016,5 hPa 0,0 l/m 0 min 0 min 0 W/m 16,1 km/h (3 Bft) 95,74 %
19.08.2019 01:40 15,2 C 14,4 C 13,3 C 85 % 1016,5 hPa 0,0 l/m 0 min 0 min 0 W/m 6,4 km/h (2 Bft) 93,62 %
19.08.2019 01:42 15,2 C 14,4 C 13,3 C 85 % 1016,5 hPa 0,0 l/m 0 min 0 min 0 W/m 6,4 km/h (2 Bft) 97,87 %
19.08.2019 01:44 15,2 C 13,9 C 13,3 C 85 % 1016,4 hPa 0,0 l/m 0 min 0 min 0 W/m 6,4 km/h (2 Bft) 97,83 %
19.08.2019 01:46 15,1 C 14,4 C 13,3 C 85 % 1016,4 hPa 0,0 l/m 0 min 0 min 0 W/m 9,7 km/h (2 Bft) 95,74 %
19.08.2019 01:48 15,1 C 14,4 C 13,3 C 85 % 1016,5 hPa 0,0 l/m 0 min 0 min 0 W/m 12,9 km/h (3 Bft) 97,87 %
19.08.2019 01:50 15,1 C 14,4 C 13,3 C 84 % 1016,5 hPa 0,0 l/m 0 min 0 min 0 W/m 12,9 km/h (3 Bft) 97,87 %
19.08.2019 01:52 15,1 C 14,4 C 13,3 C 84 % 1016,5 hPa 0,0 l/m 0 min 0 min 0 W/m 6,4 km/h (2 Bft) 97,87 %
19.08.2019 01:54 15,1 C 14,4 C 13,3 C 84 % 1016,5 hPa 0,0 l/m 0 min 0 min 0 W/m 6,4 km/h (2 Bft) 97,87 %
19.08.2019 01:56 15,1 C 13,9 C 13,3 C 84 % 1016,5 hPa 0,0 l/m 0 min 0 min 0 W/m 6,4 km/h (2 Bft) 95,65 %
19.08.2019 01:58 15,0 C 13,9 C 13,3 C 84 % 1016,5 hPa 0,0 l/m 0 min 0 min 0 W/m 6,4 km/h (2 Bft) 97,87 %
19.08.2019 02:00 15,0 C 13,9 C 13,3 C 84 % 1016,5 hPa 0,0 l/m 0 min 0 min 0 W/m 3,2 km/h (1 Bft) 97,87 %
19.08.2019 02:02 15,0 C 13,9 C 13,3 C 84 % 1016,6 hPa 0,0 l/m 0 min 0 min 0 W/m 6,4 km/h (2 Bft) 95,74 %
19.08.2019 02:04 15,0 C 13,9 C 13,3 C 84 % 1016,6 hPa 0,0 l/m 0 min 0 min 0 W/m 9,7 km/h (2 Bft) 97,87 %
19.08.2019 02:06 15,0 C 13,9 C 13,3 C 84 % 1016,7 hPa 0,0 l/m 0 min 0 min 0 W/m 9,7 km/h (2 Bft) 97,83 %
19.08.2019 02:08 14,9 C 13,9 C 13,3 C 84 % 1016,8 hPa 0,0 l/m 0 min 0 min 0 W/m 6,4 km/h (2 Bft) 97,87 %
19.08.2019 02:10 14,9 C 13,9 C 13,3 C 84 % 1016,7 hPa 0,0 l/m 0 min 0 min 0 W/m 9,7 km/h (2 Bft) 97,87 %
19.08.2019 02:12 14,9 C 13,9 C 13,3 C 84 % 1016,7 hPa 0,0 l/m 0 min 0 min 0 W/m 9,7 km/h (2 Bft) 97,87 %
19.08.2019 02:14 14,9 C 13,9 C 13,3 C 84 % 1016,7 hPa 0,0 l/m 0 min 0 min 0 W/m 9,7 km/h (2 Bft) 97,87 %
19.08.2019 02:16 14,9 C 13,9 C 13,3 C 84 % 1016,8 hPa 0,0 l/m 0 min 0 min 0 W/m 6,4 km/h (2 Bft) 93,62 %
19.08.2019 02:18 14,9 C 13,9 C 13,3 C 84 % 1016,9 hPa 0,0 l/m 0 min 0 min 0 W/m 12,9 km/h (3 Bft) 97,87 %
19.08.2019 02:20 14,9 C 13,9 C 13,3 C 84 % 1016,9 hPa 0,0 l/m 0 min 0 min 0 W/m 16,1 km/h (3 Bft) 95,65 %
19.08.2019 02:22 14,9 C 13,9 C 13,3 C 84 % 1016,9 hPa 0,0 l/m 0 min 0 min 0 W/m 19,3 km/h (3 Bft) 97,87 %
19.08.2019 02:24 14,9 C 13,9 C 13,3 C 84 % 1016,8 hPa 0,0 l/m 0 min 0 min 0 W/m 12,9 km/h (3 Bft) 100,00 %
19.08.2019 02:26 14,8 C 13,9 C 13,3 C 84 % 1016,8 hPa 0,0 l/m 0 min 0 min 0 W/m 12,9 km/h (3 Bft) 100,00 %
19.08.2019 02:28 14,8 C 13,9 C 13,3 C 84 % 1016,8 hPa 0,0 l/m 0 min 0 min 0 W/m 16,1 km/h (3 Bft) 100,00 %
19.08.2019 02:30 14,8 C 13,9 C 13,3 C 84 % 1016,8 hPa 0,0 l/m 0 min 0 min 0 W/m 16,1 km/h (3 Bft) 97,83 %
19.08.2019 02:32 14,8 C 13,9 C 13,3 C 84 % 1016,8 hPa 0,0 l/m 0 min 0 min 0 W/m 12,9 km/h (3 Bft) 97,87 %
19.08.2019 02:34 14,8 C 13,9 C 13,3 C 84 % 1016,8 hPa 0,0 l/m 0 min 0 min 0 W/m 12,9 km/h (3 Bft) 100,00 %
19.08.2019 02:36 14,8 C 13,9 C 13,3 C 84 % 1016,8 hPa 0,0 l/m 0 min 0 min 0 W/m 12,9 km/h (3 Bft) 97,87 %
19.08.2019 02:38 14,8 C 13,9 C 13,3 C 84 % 1016,8 hPa 0,0 l/m 0 min 0 min 0 W/m 12,9 km/h (3 Bft) 97,87 %
19.08.2019 02:40 14,8 C 13,9 C 13,3 C 84 % 1016,7 hPa 0,0 l/m 0 min 0 min 0 W/m 19,3 km/h (3 Bft) 100,00 %
19.08.2019 02:42 14,7 C 13,9 C 13,3 C 84 % 1016,8 hPa 0,0 l/m 0 min 0 min 0 W/m 16,1 km/h (3 Bft) 100,00 %
19.08.2019 02:44 14,7 C 13,9 C 13,3 C 84 % 1016,7 hPa 0,0 l/m 0 min 0 min 0 W/m 19,3 km/h (3 Bft) 100,00 %
19.08.2019 02:46 14,7 C 13,9 C 13,3 C 84 % 1016,7 hPa 0,0 l/m 0 min 0 min 0 W/m 12,9 km/h (3 Bft) 97,87 %
19.08.2019 02:48 14,7 C 13,9 C 13,3 C 84 % 1016,7 hPa 0,0 l/m 0 min 0 min 0 W/m 12,9 km/h (3 Bft) 97,87 %
19.08.2019 02:50 14,7 C 13,9 C 13,3 C 84 % 1016,7 hPa 0,0 l/m 0 min 0 min 0 W/m 9,7 km/h (2 Bft) 97,87 %
19.08.2019 02:52 14,7 C 13,9 C 13,3 C 84 % 1016,8 hPa 0,0 l/m 0 min 0 min 0 W/m 9,7 km/h (2 Bft) 97,87 %
19.08.2019 02:54 14,7 C 13,9 C 13,3 C 84 % 1016,8 hPa 0,0 l/m 0 min 0 min 0 W/m 6,4 km/h (2 Bft) 97,83 %
19.08.2019 02:56 14,6 C 13,9 C 12,8 C 84 % 1016,8 hPa 0,0 l/m 0 min 0 min 0 W/m 9,7 km/h (2 Bft) 97,87 %
19.08.2019 02:58 14,6 C 13,3 C 12,8 C 84 % 1016,8 hPa 0,0 l/m 0 min 0 min 0 W/m 9,7 km/h (2 Bft) 97,87 %
19.08.2019 03:00 14,6 C 13,3 C 12,8 C 84 % 1016,7 hPa 0,0 l/m 0 min 0 min 0 W/m 12,9 km/h (3 Bft) 97,87 %
19.08.2019 03:02 14,6 C 13,3 C 12,8 C 84 % 1016,8 hPa 0,0 l/m 0 min 0 min 0 W/m 9,7 km/h (2 Bft) 97,87 %
19.08.2019 03:04 14,6 C 13,3 C 12,8 C 84 % 1016,8 hPa 0,0 l/m 0 min 0 min 0 W/m 9,7 km/h (2 Bft) 97,87 %
19.08.2019 03:06 14,5 C 13,3 C 12,8 C 84 % 1016,8 hPa 0,0 l/m 0 min 0 min 0 W/m 9,7 km/h (2 Bft) 93,48 %
19.08.2019 03:08 14,5 C 13,3 C 13,3 C 84 % 1016,7 hPa 0,0 l/m 0 min 0 min 0 W/m 6,4 km/h (2 Bft) 97,87 %
19.08.2019 03:10 14,5 C 13,9 C 13,3 C 84 % 1016,8 hPa 0,0 l/m 0 min 0 min 0 W/m 6,4 km/h (2 Bft) 97,87 %
19.08.2019 03:12 14,5 C 13,9 C 13,3 C 84 % 1016,8 hPa 0,0 l/m 0 min 0 min 0 W/m 16,1 km/h (3 Bft) 95,74 %
19.08.2019 03:14 14,4 C 13,9 C 13,3 C 84 % 1016,8 hPa 0,0 l/m 0 min 0 min 0 W/m 12,9 km/h (3 Bft) 97,87 %
19.08.2019 03:16 14,4 C 13,9 C 13,3 C 84 % 1016,8 hPa 0,0 l/m 0 min 0 min 0 W/m 19,3 km/h (3 Bft) 97,83 %
19.08.2019 03:18 14,4 C 13,9 C 13,3 C 84 % 1016,9 hPa 0,0 l/m 0 min 0 min 0 W/m 12,9 km/h (3 Bft) 97,87 %
19.08.2019 03:20 14,4 C 13,9 C 13,3 C 84 % 1016,8 hPa 0,0 l/m 0 min 0 min 0 W/m 9,7 km/h (2 Bft) 95,74 %
19.08.2019 03:22 14,4 C 13,9 C 13,3 C 84 % 1016,8 hPa 0,0 l/m 0 min 0 min 0 W/m 12,9 km/h (3 Bft) 95,74 %
19.08.2019 03:24 14,4 C 13,9 C 13,3 C 84 % 1016,7 hPa 0,0 l/m 0 min 0 min 0 W/m 9,7 km/h (2 Bft) 93,62 %
19.08.2019 03:26 14,4 C 13,9 C 13,3 C 84 % 1016,7 hPa 0,0 l/m 0 min 0 min 0 W/m 9,7 km/h (2 Bft) 95,74 %
19.08.2019 03:28 14,4 C 13,9 C 13,3 C 84 % 1016,6 hPa 0,0 l/m 0 min 0 min 0 W/m 9,7 km/h (2 Bft) 95,65 %
19.08.2019 03:30 14,4 C 13,3 C 13,3 C 84 % 1016,6 hPa 0,0 l/m 0 min 0 min 0 W/m 12,9 km/h (3 Bft) 97,87 %
19.08.2019 03:32 14,4 C 13,3 C 13,3 C 84 % 1016,6 hPa 0,0 l/m 0 min 0 min 0 W/m 16,1 km/h (3 Bft) 97,87 %
19.08.2019 03:34 14,4 C 13,3 C 12,8 C 85 % 1016,7 hPa 0,0 l/m 0 min 0 min 0 W/m 16,1 km/h (3 Bft) 97,87 %
19.08.2019 03:36 14,4 C 13,3 C 13,3 C 85 % 1016,6 hPa 0,0 l/m 0 min 0 min 0 W/m 9,7 km/h (2 Bft) 95,74 %
19.08.2019 03:38 14,4 C 13,3 C 12,8 C 85 % 1016,6 hPa 0,0 l/m 0 min 0 min 0 W/m 9,7 km/h (2 Bft) 95,74 %
19.08.2019 03:40 14,4 C 13,3 C 13,3 C 85 % 1016,6 hPa 0,0 l/m 0 min 0 min 0 W/m 12,9 km/h (3 Bft) 95,65 %
19.08.2019 03:42 14,4 C 13,3 C 13,3 C 85 % 1016,6 hPa 0,0 l/m 0 min 0 min 0 W/m 16,1 km/h (3 Bft) 95,74 %
19.08.2019 03:44 14,4 C 13,3 C 13,3 C 85 % 1016,7 hPa 0,0 l/m 0 min 0 min 0 W/m 16,1 km/h (3 Bft) 97,87 %
19.08.2019 03:46 14,4 C 13,3 C 12,8 C 85 % 1016,7 hPa 0,0 l/m 0 min 0 min 0 W/m 12,9 km/h (3 Bft) 95,74 %
19.08.2019 03:48 14,4 C 13,3 C 12,8 C 85 % 1016,6 hPa 0,0 l/m 0 min 0 min 0 W/m 12,9 km/h (3 Bft) 97,87 %
19.08.2019 03:50 14,3 C 13,3 C 12,8 C 85 % 1016,7 hPa 0,0 l/m 0 min 0 min 0 W/m 12,9 km/h (3 Bft) 95,74 %
19.08.2019 03:52 14,3 C 13,3 C 12,8 C 85 % 1016,7 hPa 0,0 l/m 0 min 0 min 0 W/m 16,1 km/h (3 Bft) 93,48 %
19.08.2019 03:54 14,3 C 13,3 C 12,8 C 85 % 1016,7 hPa 0,0 l/m 0 min 0 min 0 W/m 9,7 km/h (2 Bft) 95,74 %
19.08.2019 03:56 14,3 C 13,3 C 12,8 C 85 % 1016,6 hPa 0,0 l/m 0 min 0 min 0 W/m 16,1 km/h (3 Bft) 97,87 %
19.08.2019 03:58 14,2 C 13,3 C 12,8 C 85 % 1016,7 hPa 0,0 l/m 0 min 0 min 0 W/m 16,1 km/h (3 Bft) 97,87 %
19.08.2019 04:00 14,2 C 13,3 C 12,8 C 85 % 1016,7 hPa 0,0 l/m 0 min 0 min 0 W/m 19,3 km/h (3 Bft) 95,74 %
19.08.2019 04:02 14,2 C 13,3 C 12,8 C 85 % 1016,7 hPa 0,0 l/m 0 min 0 min 0 W/m 19,3 km/h (3 Bft) 100,00 %
19.08.2019 04:04 14,2 C 13,3 C 12,8 C 85 % 1016,6 hPa 0,0 l/m 0 min 0 min 0 W/m 16,1 km/h (3 Bft) 100,00 %
19.08.2019 04:06 14,2 C 13,3 C 12,8 C 86 % 1016,6 hPa 0,0 l/m 0 min 0 min 0 W/m 19,3 km/h (3 Bft) 97,87 %
19.08.2019 04:08 14,2 C 13,3 C 12,8 C 86 % 1016,5 hPa 0,0 l/m 0 min 0 min 0 W/m 19,3 km/h (3 Bft) 100,00 %
19.08.2019 04:10 14,2 C 13,3 C 12,8 C 86 % 1016,4 hPa 0,0 l/m 0 min 0 min 0 W/m 12,9 km/h (3 Bft) 97,87 %
19.08.2019 04:12 14,2 C 13,3 C 12,8 C 86 % 1016,4 hPa 0,0 l/m 0 min 0 min 0 W/m 16,1 km/h (3 Bft) 97,87 %
19.08.2019 04:14 14,2 C 13,3 C 12,8 C 86 % 1016,3 hPa 0,0 l/m 0 min 0 min 0 W/m 22,5 km/h (4 Bft) 97,87 %
19.08.2019 04:16 14,2 C 13,3 C 12,8 C 86 % 1016,4 hPa 0,0 l/m 0 min 0 min 0 W/m 16,1 km/h (3 Bft) 97,83 %
19.08.2019 04:18 14,2 C 13,3 C 12,8 C 86 % 1016,3 hPa 0,0 l/m 0 min 0 min 0 W/m 16,1 km/h (3 Bft) 93,62 %
19.08.2019 04:20 14,2 C 13,3 C 12,8 C 86 % 1016,3 hPa 0,0 l/m 0 min 0 min 0 W/m 16,1 km/h (3 Bft) 97,87 %
19.08.2019 04:22 14,2 C 13,3 C 12,8 C 86 % 1016,3 hPa 0,0 l/m 0 min 0 min 0 W/m 16,1 km/h (3 Bft) 93,62 %
19.08.2019 04:24 14,2 C 13,3 C 12,8 C 86 % 1016,3 hPa 0,0 l/m 0 min 0 min 0 W/m 16,1 km/h (3 Bft) 95,74 %
19.08.2019 04:26 14,2 C 13,3 C 12,8 C 86 % 1016,3 hPa 0,0 l/m 0 min 0 min 0 W/m 16,1 km/h (3 Bft) 95,65 %
19.08.2019 04:28 14,2 C 13,3 C 12,8 C 86 % 1016,3 hPa 0,0 l/m 0 min 0 min 0 W/m 19,3 km/h (3 Bft) 95,74 %
19.08.2019 04:30 14,2 C 13,3 C 12,8 C 86 % 1016,4 hPa 0,0 l/m 0 min 0 min 0 W/m 22,5 km/h (4 Bft) 97,87 %
19.08.2019 04:32 14,2 C 13,3 C 12,8 C 86 % 1016,3 hPa 0,0 l/m 0 min 0 min 0 W/m 16,1 km/h (3 Bft) 95,74 %
19.08.2019 04:34 14,2 C 13,3 C 12,8 C 86 % 1016,4 hPa 0,0 l/m 0 min 0 min 0 W/m 12,9 km/h (3 Bft) 97,87 %
19.08.2019 04:36 14,2 C 13,3 C 12,8 C 86 % 1016,4 hPa 0,0 l/m 0 min 0 min 0 W/m 16,1 km/h (3 Bft) 97,87 %
19.08.2019 04:38 14,2 C 13,3 C 12,8 C 87 % 1016,3 hPa 0,0 l/m 0 min 0 min 0 W/m 16,1 km/h (3 Bft) 97,83 %
19.08.2019 04:40 14,2 C 13,3 C 12,8 C 87 % 1016,3 hPa 0,0 l/m 0 min 0 min 0 W/m 16,1 km/h (3 Bft) 95,74 %
19.08.2019 04:42 14,2 C 13,3 C 12,8 C 87 % 1016,4 hPa 0,0 l/m 0 min 0 min 0 W/m 16,1 km/h (3 Bft) 97,87 %
19.08.2019 04:44 14,2 C 13,3 C 12,8 C 87 % 1016,4 hPa 0,0 l/m 0 min 0 min 0 W/m 9,7 km/h (2 Bft) 97,87 %
19.08.2019 04:46 14,2 C 13,3 C 12,8 C 87 % 1016,3 hPa 0,0 l/m 0 min 0 min 0 W/m 12,9 km/h (3 Bft) 95,74 %
19.08.2019 04:48 14,2 C 13,3 C 12,8 C 87 % 1016,3 hPa 0,0 l/m 0 min 0 min 0 W/m 9,7 km/h (2 Bft) 97,87 %
19.08.2019 04:50 14,2 C 13,3 C 12,8 C 87 % 1016,3 hPa 0,0 l/m 0 min 0 min 0 W/m 9,7 km/h (2 Bft) 97,83 %
19.08.2019 04:52 14,2 C 12,8 C 12,8 C 87 % 1016,3 hPa 0,0 l/m 0 min 0 min 0 W/m 9,7 km/h (2 Bft) 97,87 %
19.08.2019 04:54 14,2 C 13,3 C 12,8 C 87 % 1016,3 hPa 0,0 l/m 0 min 0 min 0 W/m 9,7 km/h (2 Bft) 97,87 %
19.08.2019 04:56 14,2 C 12,8 C 12,8 C 87 % 1016,3 hPa 0,0 l/m 0 min 0 min 0 W/m 9,7 km/h (2 Bft) 95,74 %
19.08.2019 04:58 14,1 C 12,8 C 12,8 C 87 % 1016,3 hPa 0,0 l/m 0 min 0 min 0 W/m 12,9 km/h (3 Bft) 97,87 %
19.08.2019 05:00 14,1 C 12,8 C 12,8 C 87 % 1016,3 hPa 0,0 l/m 0 min 0 min 0 W/m 9,7 km/h (2 Bft) 97,14 %
19.08.2019 05:02 14,1 C 12,8 C 12,8 C 87 % 1016,3 hPa 0,0 l/m 0 min 0 min 0 W/m 12,9 km/h (3 Bft) 96,55 %
19.08.2019 05:04 14,1 C 12,8 C 12,8 C 87 % 1016,2 hPa 0,0 l/m 0 min 0 min 0 W/m 12,9 km/h (3 Bft) 97,87 %
19.08.2019 05:06 14,0 C 12,8 C 12,2 C 87 % 1016,3 hPa 0,0 l/m 0 min 0 min 0 W/m 12,9 km/h (3 Bft) 97,87 %
19.08.2019 05:08 14,0 C 12,8 C 12,2 C 87 % 1016,2 hPa 0,0 l/m 0 min 0 min 0 W/m 9,7 km/h (2 Bft) 97,87 %
19.08.2019 05:10 13,9 C 12,8 C 12,2 C 87 % 1016,3 hPa 0,0 l/m 0 min 0 min 0 W/m 12,9 km/h (3 Bft) 100,00 %
19.08.2019 05:12 13,9 C 12,8 C 12,2 C 87 % 1016,2 hPa 0,0 l/m 0 min 0 min 0 W/m 12,9 km/h (3 Bft) 95,74 %
19.08.2019 05:14 13,9 C 12,8 C 12,2 C 87 % 1016,1 hPa 0,0 l/m 0 min 0 min 0 W/m 12,9 km/h (3 Bft) 100,00 %
19.08.2019 05:16 13,9 C 12,8 C 12,2 C 87 % 1016,2 hPa 0,0 l/m 0 min 0 min 0 W/m 12,9 km/h (3 Bft) 100,00 %
19.08.2019 05:18 13,8 C 12,8 C 12,2 C 87 % 1016,2 hPa 0,0 l/m 0 min 0 min 0 W/m 12,9 km/h (3 Bft) 100,00 %
19.08.2019 05:20 13,8 C 12,8 C 12,2 C 87 % 1016,2 hPa 0,0 l/m 0 min 0 min 0 W/m 9,7 km/h (2 Bft) 97,87 %
19.08.2019 05:22 13,8 C 12,8 C 12,2 C 88 % 1016,1 hPa 0,0 l/m 0 min 0 min 0 W/m 16,1 km/h (3 Bft) 100,00 %
19.08.2019 05:24 13,8 C 12,8 C 12,2 C 88 % 1016,2 hPa 0,0 l/m 0 min 0 min 0 W/m 16,1 km/h (3 Bft) 100,00 %
19.08.2019 05:26 13,7 C 12,8 C 12,2 C 88 % 1016,2 hPa 0,0 l/m 0 min 0 min 0 W/m 12,9 km/h (3 Bft) 100,00 %
19.08.2019 05:28 13,7 C 12,8 C 12,2 C 88 % 1016,2 hPa 0,0 l/m 0 min 0 min 0 W/m 9,7 km/h (2 Bft) 100,00 %
19.08.2019 05:30 13,7 C 12,8 C 12,2 C 88 % 1016,2 hPa 0,0 l/m 0 min 0 min 0 W/m 16,1 km/h (3 Bft) 100,00 %
19.08.2019 05:32 13,7 C 12,8 C 12,2 C 88 % 1016,1 hPa 0,0 l/m 0 min 0 min 0 W/m 16,1 km/h (3 Bft) 100,00 %
19.08.2019 05:34 13,7 C 12,8 C 12,2 C 88 % 1016,1 hPa 0,0 l/m 0 min 0 min 0 W/m 9,7 km/h (2 Bft) 100,00 %
19.08.2019 05:36 13,6 C 12,8 C 12,2 C 88 % 1016,1 hPa 0,0 l/m 0 min 0 min 0 W/m 12,9 km/h (3 Bft) 100,00 %
19.08.2019 05:38 13,6 C 12,8 C 12,2 C 88 % 1016,1 hPa 0,0 l/m 0 min 0 min 0 W/m 12,9 km/h (3 Bft) 100,00 %
19.08.2019 05:40 13,6 C 12,8 C 12,2 C 89 % 1016,1 hPa 0,0 l/m 0 min 0 min 0 W/m 16,1 km/h (3 Bft) 100,00 %
19.08.2019 05:42 13,6 C 12,8 C 12,2 C 89 % 1016,1 hPa 0,0 l/m 0 min 0 min 0 W/m 19,3 km/h (3 Bft) 100,00 %
19.08.2019 05:44 13,6 C 12,8 C 12,2 C 89 % 1016,1 hPa 0,0 l/m 0 min 0 min 0 W/m 9,7 km/h (2 Bft) 100,00 %
19.08.2019 05:46 13,6 C 12,8 C 12,2 C 89 % 1016,1 hPa 0,0 l/m 0 min 0 min 0 W/m 12,9 km/h (3 Bft) 100,00 %
19.08.2019 05:48 13,6 C 12,8 C 12,2 C 89 % 1016,1 hPa 0,0 l/m 0 min 0 min 0 W/m 12,9 km/h (3 Bft) 100,00 %
19.08.2019 05:50 13,6 C 12,8 C 12,2 C 89 % 1016,0 hPa 0,0 l/m 0 min 0 min 0 W/m 12,9 km/h (3 Bft) 100,00 %
19.08.2019 05:52 13,6 C 12,8 C 12,2 C 89 % 1016,1 hPa 0,0 l/m 0 min 0 min 0 W/m 12,9 km/h (3 Bft) 100,00 %
19.08.2019 05:54 13,6 C 12,8 C 12,2 C 89 % 1016,1 hPa 0,0 l/m 0 min 0 min 0 W/m 12,9 km/h (3 Bft) 100,00 %
19.08.2019 05:56 13,6 C 12,8 C 12,2 C 89 % 1016,1 hPa 0,0 l/m 0 min 0 min 0 W/m 9,7 km/h (2 Bft) 100,00 %
19.08.2019 05:58 13,6 C 12,8 C 12,2 C 89 % 1016,1 hPa 0,0 l/m 0 min 0 min 0 W/m 9,7 km/h (2 Bft) 97,87 %
19.08.2019 06:00 13,6 C 12,8 C 12,2 C 89 % 1016,0 hPa 0,0 l/m 0 min 0 min 0 W/m 12,9 km/h (3 Bft) 100,00 %
19.08.2019 06:02 13,6 C 12,8 C 12,2 C 89 % 1015,9 hPa 0,0 l/m 0 min 0 min 0 W/m 12,9 km/h (3 Bft) 100,00 %
19.08.2019 06:04 13,6 C 12,8 C 12,2 C 89 % 1015,9 hPa 0,0 l/m 0 min 0 min 0 W/m 12,9 km/h (3 Bft) 97,87 %
19.08.2019 06:08 13,5 C 12,8 C 12,2 C 89 % 1015,9 hPa 0,0 l/m 0 min 0 min 0 W/m 12,9 km/h (3 Bft) 100,00 %
19.08.2019 06:10 13,5 C 12,8 C 12,2 C 89 % 1015,9 hPa 0,0 l/m 0 min 0 min 0 W/m 12,9 km/h (3 Bft) 95,74 %
19.08.2019 06:12 13,5 C 12,8 C 12,2 C 89 % 1015,9 hPa 0,0 l/m 0 min 0 min 0 W/m 16,1 km/h (3 Bft) 97,83 %
19.08.2019 06:14 13,5 C 12,8 C 12,2 C 89 % 1015,9 hPa 0,0 l/m 0 min 0 min 0 W/m 16,1 km/h (3 Bft) 97,87 %
19.08.2019 06:16 13,5 C 12,8 C 12,2 C 89 % 1015,9 hPa 0,0 l/m 0 min 0 min 0 W/m 6,4 km/h (2 Bft) 100,00 %
19.08.2019 06:18 13,5 C 12,8 C 12,2 C 89 % 1015,9 hPa 0,0 l/m 0 min 0 min 0 W/m 12,9 km/h (3 Bft) 100,00 %
19.08.2019 06:20 13,5 C 12,8 C 12,2 C 90 % 1015,8 hPa 0,0 l/m 0 min 0 min 0 W/m 12,9 km/h (3 Bft) 95,74 %
19.08.2019 06:22 13,4 C 12,8 C 12,2 C 90 % 1015,8 hPa 0,0 l/m 0 min 0 min 0 W/m 9,7 km/h (2 Bft) 93,62 %
19.08.2019 06:24 13,4 C 12,8 C 12,2 C 90 % 1015,8 hPa 0,0 l/m 0 min 0 min 0 W/m 12,9 km/h (3 Bft) 95,65 %
19.08.2019 06:26 13,4 C 12,8 C 12,2 C 90 % 1015,9 hPa 0,0 l/m 0 min 0 min 0 W/m 12,9 km/h (3 Bft) 97,87 %
19.08.2019 06:28 13,4 C 12,2 C 12,2 C 90 % 1015,9 hPa 0,0 l/m 0 min 0 min 0 W/m 12,9 km/h (3 Bft) 97,87 %
19.08.2019 06:30 13,4 C 12,2 C 12,2 C 90 % 1015,9 hPa 0,0 l/m 0 min 0 min 0 W/m 9,7 km/h (2 Bft) 95,74 %
19.08.2019 06:32 13,4 C 12,2 C 12,2 C 90 % 1015,8 hPa 0,0 l/m 0 min 0 min 4 W/m 6,4 km/h (2 Bft) 95,74 %
19.08.2019 06:34 13,4 C 12,2 C 12,2 C 90 % 1015,9 hPa 0,0 l/m 0 min 0 min 5 W/m 12,9 km/h (3 Bft) 95,65 %
19.08.2019 06:36 13,4 C 12,2 C 12,2 C 90 % 1015,8 hPa 0,0 l/m 0 min 0 min 5 W/m 12,9 km/h (3 Bft) 95,74 %
19.08.2019 06:38 13,4 C 12,2 C 12,2 C 90 % 1015,8 hPa 0,0 l/m 0 min 0 min 7 W/m 12,9 km/h (3 Bft) 95,74 %
19.08.2019 06:40 13,4 C 12,2 C 12,2 C 90 % 1015,8 hPa 0,0 l/m 0 min 0 min 7 W/m 12,9 km/h (3 Bft) 93,62 %
19.08.2019 06:42 13,3 C 12,2 C 12,2 C 90 % 1015,8 hPa 0,0 l/m 0 min 0 min 9 W/m 9,7 km/h (2 Bft) 95,74 %
19.08.2019 06:44 13,3 C 12,2 C 12,2 C 90 % 1015,9 hPa 0,0 l/m 0 min 0 min 10 W/m 12,9 km/h (3 Bft) 95,74 %
19.08.2019 06:46 13,3 C 12,2 C 12,2 C 90 % 1015,8 hPa 0,0 l/m 0 min 0 min 11 W/m 12,9 km/h (3 Bft) 95,65 %
19.08.2019 06:48 13,3 C 12,2 C 12,2 C 90 % 1015,9 hPa 0,0 l/m 0 min 0 min 11 W/m 12,9 km/h (3 Bft) 95,74 %
19.08.2019 06:50 13,3 C 12,2 C 12,2 C 90 % 1015,9 hPa 0,0 l/m 0 min 0 min 12 W/m 12,9 km/h (3 Bft) 95,74 %
19.08.2019 06:52 13,3 C 12,2 C 12,2 C 90 % 1015,9 hPa 0,0 l/m 0 min 0 min 12 W/m 9,7 km/h (2 Bft) 95,74 %
19.08.2019 06:54 13,3 C 12,2 C 12,2 C 90 % 1015,9 hPa 0,0 l/m 0 min 0 min 13 W/m 12,9 km/h (3 Bft) 95,74 %
19.08.2019 06:56 13,3 C 12,2 C 12,2 C 90 % 1015,9 hPa 0,0 l/m 0 min 0 min 14 W/m 9,7 km/h (2 Bft) 95,74 %
19.08.2019 06:58 13,3 C 12,2 C 12,2 C 90 % 1015,9 hPa 0,0 l/m 0 min 0 min 15 W/m 9,7 km/h (2 Bft) 93,48 %
19.08.2019 07:00 13,2 C 12,8 C 12,2 C 90 % 1015,9 hPa 0,0 l/m 0 min 0 min 16 W/m 9,7 km/h (2 Bft) 93,62 %
19.08.2019 07:02 13,2 C 12,8 C 12,2 C 91 % 1015,9 hPa 0,0 l/m 0 min 0 min 17 W/m 16,1 km/h (3 Bft) 95,74 %
19.08.2019 07:04 13,2 C 12,8 C 12,2 C 91 % 1015,9 hPa 0,0 l/m 0 min 0 min 18 W/m 12,9 km/h (3 Bft) 95,74 %
19.08.2019 07:06 13,2 C 12,8 C 12,2 C 91 % 1015,8 hPa 0,0 l/m 0 min 0 min 18 W/m 12,9 km/h (3 Bft) 93,62 %
19.08.2019 07:08 13,2 C 12,8 C 12,2 C 91 % 1015,9 hPa 0,0 l/m 0 min 0 min 19 W/m 9,7 km/h (2 Bft) 93,62 %
19.08.2019 07:10 13,2 C 12,8 C 12,2 C 91 % 1015,9 hPa 0,0 l/m 0 min 0 min 19 W/m 12,9 km/h (3 Bft) 93,48 %
19.08.2019 07:12 13,2 C 12,8 C 12,2 C 91 % 1015,8 hPa 0,0 l/m 0 min 0 min 21 W/m 9,7 km/h (2 Bft) 91,49 %
19.08.2019 07:14 13,2 C 12,8 C 12,2 C 91 % 1015,8 hPa 0,0 l/m 0 min 0 min 21 W/m 9,7 km/h (2 Bft) 95,74 %
19.08.2019 07:16 13,2 C 12,8 C 12,2 C 91 % 1015,9 hPa 0,0 l/m 0 min 0 min 23 W/m 12,9 km/h (3 Bft) 93,62 %
19.08.2019 07:18 13,3 C 12,8 C 12,2 C 91 % 1015,8 hPa 0,0 l/m 0 min 0 min 23 W/m 9,7 km/h (2 Bft) 95,74 %
19.08.2019 07:20 13,3 C 12,8 C 12,2 C 91 % 1015,9 hPa 0,0 l/m 0 min 0 min 25 W/m 12,9 km/h (3 Bft) 95,74 %
19.08.2019 07:22 13,3 C 12,8 C 12,2 C 91 % 1015,8 hPa 0,0 l/m 0 min 0 min 25 W/m 9,7 km/h (2 Bft) 95,65 %
19.08.2019 07:26 13,3 C 12,8 C 12,2 C 91 % 1014,5 hPa 0,0 l/m 0 min 0 min 26 W/m 6,4 km/h (2 Bft) 96,34 %
19.08.2019 07:28 13,3 C 13,3 C 12,8 C 91 % 1014,5 hPa 0,0 l/m 0 min 0 min 27 W/m 12,9 km/h (3 Bft) 98,18 %
19.08.2019 07:30 13,3 C 13,3 C 12,8 C 91 % 1014,4 hPa 0,0 l/m 0 min 0 min 28 W/m 12,9 km/h (3 Bft) 98,00 %
19.08.2019 07:32 13,3 C 13,3 C 12,8 C 91 % 1014,5 hPa 0,0 l/m 0 min 0 min 30 W/m 9,7 km/h (2 Bft) 93,62 %
19.08.2019 07:34 13,3 C 13,3 C 12,8 C 91 % 1014,5 hPa 0,0 l/m 0 min 0 min 30 W/m 12,9 km/h (3 Bft) 95,92 %
19.08.2019 07:36 13,4 C 13,3 C 12,8 C 91 % 1014,5 hPa 0,0 l/m 0 min 0 min 31 W/m 16,1 km/h (3 Bft) 97,83 %
19.08.2019 07:38 13,4 C 13,3 C 12,8 C 92 % 1014,6 hPa 0,0 l/m 0 min 0 min 32 W/m 22,5 km/h (4 Bft) 95,74 %
19.08.2019 07:40 13,4 C 13,3 C 12,8 C 91 % 1014,6 hPa 0,0 l/m 0 min 0 min 32 W/m 12,9 km/h (3 Bft) 97,14 %
19.08.2019 07:42 13,4 C 13,3 C 12,8 C 91 % 1014,6 hPa 0,0 l/m 0 min 0 min 33 W/m 12,9 km/h (3 Bft) 98,28 %
19.08.2019 07:44 13,5 C 13,3 C 12,8 C 91 % 1014,7 hPa 0,0 l/m 0 min 0 min 33 W/m 19,3 km/h (3 Bft) 93,62 %
19.08.2019 07:46 13,5 C 13,3 C 12,8 C 91 % 1014,6 hPa 0,0 l/m 0 min 0 min 33 W/m 16,1 km/h (3 Bft) 94,44 %
19.08.2019 07:48 13,5 C 13,9 C 12,8 C 91 % 1014,6 hPa 0,0 l/m 0 min 0 min 35 W/m 12,9 km/h (3 Bft) 97,87 %
19.08.2019 07:50 13,6 C 13,9 C 12,8 C 91 % 1014,6 hPa 0,0 l/m 0 min 0 min 35 W/m 16,1 km/h (3 Bft) 95,65 %
19.08.2019 07:52 13,6 C 13,9 C 12,8 C 91 % 1014,6 hPa 0,0 l/m 0 min 0 min 37 W/m 22,5 km/h (4 Bft) 97,87 %
19.08.2019 07:54 13,6 C 13,9 C 13,3 C 91 % 1014,6 hPa 0,0 l/m 0 min 0 min 38 W/m 16,1 km/h (3 Bft) 97,87 %
19.08.2019 07:56 13,7 C 13,9 C 13,3 C 91 % 1014,6 hPa 0,0 l/m 0 min 0 min 39 W/m 19,3 km/h (3 Bft) 100,00 %
19.08.2019 07:58 13,7 C 13,9 C 13,3 C 91 % 1014,7 hPa 0,0 l/m 0 min 0 min 40 W/m 16,1 km/h (3 Bft) 100,00 %
19.08.2019 08:00 13,8 C 13,9 C 13,3 C 91 % 1014,6 hPa 0,0 l/m 0 min 0 min 41 W/m 16,1 km/h (3 Bft) 100,00 %
19.08.2019 08:02 13,8 C 13,9 C 13,3 C 91 % 1014,7 hPa 0,0 l/m 0 min 0 min 42 W/m 19,3 km/h (3 Bft) 95,65 %
19.08.2019 08:04 13,8 C 13,9 C 13,3 C 91 % 1014,7 hPa 0,0 l/m 0 min 0 min 43 W/m 12,9 km/h (3 Bft) 100,00 %
19.08.2019 08:06 13,9 C 13,9 C 13,3 C 91 % 1014,6 hPa 0,0 l/m 0 min 0 min 44 W/m 19,3 km/h (3 Bft) 100,00 %
19.08.2019 08:08 13,9 C 13,9 C 13,3 C 91 % 1014,6 hPa 0,0 l/m 0 min 0 min 46 W/m 12,9 km/h (3 Bft) 100,00 %
19.08.2019 08:10 14,0 C 14,4 C 13,3 C 91 % 1014,6 hPa 0,0 l/m 0 min 0 min 47 W/m 12,9 km/h (3 Bft) 100,00 %
19.08.2019 08:12 14,1 C 14,4 C 13,3 C 91 % 1014,6 hPa 0,0 l/m 0 min 0 min 48 W/m 12,9 km/h (3 Bft) 100,00 %
19.08.2019 08:14 14,1 C 14,4 C 13,9 C 90 % 1014,6 hPa 0,0 l/m 0 min 0 min 49 W/m 9,7 km/h (2 Bft) 100,00 %
19.08.2019 08:16 14,2 C 14,4 C 13,9 C 90 % 1014,5 hPa 0,0 l/m 0 min 0 min 51 W/m 12,9 km/h (3 Bft) 97,87 %
19.08.2019 08:18 14,2 C 14,4 C 13,9 C 90 % 1014,5 hPa 0,0 l/m 0 min 0 min 53 W/m 9,7 km/h (2 Bft) 100,00 %
19.08.2019 08:20 14,2 C 14,4 C 13,9 C 90 % 1014,6 hPa 0,0 l/m 0 min 0 min 54 W/m 19,3 km/h (3 Bft) 100,00 %
19.08.2019 08:22 14,2 C 14,4 C 13,9 C 90 % 1014,5 hPa 0,0 l/m 0 min 0 min 54 W/m 12,9 km/h (3 Bft) 96,36 %
19.08.2019 08:24 14,2 C 14,4 C 13,9 C 90 % 1014,5 hPa 0,0 l/m 0 min 0 min 56 W/m 16,1 km/h (3 Bft) 100,00 %
19.08.2019 08:26 14,2 C 14,4 C 13,9 C 90 % 1014,5 hPa 0,0 l/m 0 min 0 min 56 W/m 19,3 km/h (3 Bft) 100,00 %
19.08.2019 08:28 14,3 C 15,0 C 13,9 C 90 % 1014,5 hPa 0,0 l/m 0 min 0 min 58 W/m 19,3 km/h (3 Bft) 100,00 %
19.08.2019 08:30 14,4 C 15,0 C 13,9 C 90 % 1014,5 hPa 0,0 l/m 0 min 0 min 60 W/m 16,1 km/h (3 Bft) 97,87 %
19.08.2019 08:32 14,4 C 15,0 C 13,9 C 90 % 1014,5 hPa 0,0 l/m 0 min 0 min 62 W/m 19,3 km/h (3 Bft) 100,00 %
19.08.2019 08:34 14,5 C 15,0 C 14,4 C 90 % 1014,6 hPa 0,0 l/m 0 min 0 min 63 W/m 19,3 km/h (3 Bft) 98,00 %
19.08.2019 08:36 14,6 C 15,0 C 14,4 C 90 % 1014,5 hPa 0,0 l/m 0 min 0 min 64 W/m 19,3 km/h (3 Bft) 100,00 %
19.08.2019 08:38 14,6 C 15,6 C 14,4 C 90 % 1014,5 hPa 0,0 l/m 0 min 0 min 65 W/m 12,9 km/h (3 Bft) 97,83 %
19.08.2019 08:40 14,7 C 15,6 C 14,4 C 89 % 1014,5 hPa 0,0 l/m 0 min 0 min 67 W/m 16,1 km/h (3 Bft) 100,00 %
19.08.2019 08:42 14,8 C 15,6 C 14,4 C 89 % 1014,4 hPa 0,0 l/m 0 min 0 min 116 W/m 12,9 km/h (3 Bft) 100,00 %
19.08.2019 08:44 14,9 C 15,6 C 14,4 C 89 % 1014,5 hPa 0,0 l/m 0 min 0 min 129 W/m 16,1 km/h (3 Bft) 100,00 %
19.08.2019 08:46 14,9 C 15,6 C 14,4 C 89 % 1014,4 hPa 0,0 l/m 0 min 0 min 72 W/m 16,1 km/h (3 Bft) 100,00 %
19.08.2019 08:48 15,0 C 15,6 C 15,0 C 89 % 1014,5 hPa 0,0 l/m 0 min 0 min 72 W/m 25,7 km/h (4 Bft) 100,00 %
19.08.2019 08:50 15,1 C 16,1 C 15,0 C 89 % 1014,5 hPa 0,0 l/m 0 min 0 min 74 W/m 22,5 km/h (4 Bft) 100,00 %
19.08.2019 08:52 15,2 C 17,2 C 15,0 C 88 % 1014,4 hPa 0,0 l/m 0 min 0 min 97 W/m 16,1 km/h (3 Bft) 97,87 %
19.08.2019 08:54 15,2 C 18,3 C 15,0 C 88 % 1014,4 hPa 0,0 l/m 2 min 0 min 255 W/m 12,9 km/h (3 Bft) 100,00 %
19.08.2019 08:56 15,3 C 18,3 C 15,0 C 88 % 1014,5 hPa 0,0 l/m 2 min 0 min 309 W/m 19,3 km/h (3 Bft) 100,00 %
19.08.2019 08:58 15,5 C 18,9 C 15,0 C 88 % 1014,4 hPa 0,0 l/m 2 min 0 min 313 W/m 19,3 km/h (3 Bft) 100,00 %
19.08.2019 09:00 15,6 C 19,4 C 15,0 C 88 % 1014,5 hPa 0,0 l/m 2 min 0 min 319 W/m 16,1 km/h (3 Bft) 97,83 %
19.08.2019 09:02 15,7 C 20,0 C 15,6 C 87 % 1014,4 hPa 0,0 l/m 2 min 0 min 328 W/m 16,1 km/h (3 Bft) 97,87 %
19.08.2019 09:04 15,8 C 20,0 C 15,6 C 87 % 1014,5 hPa 0,0 l/m 2 min 0 min 330 W/m 6,4 km/h (2 Bft) 100,00 %
19.08.2019 09:06 15,9 C 20,0 C 15,6 C 87 % 1014,5 hPa 0,0 l/m 2 min 0 min 282 W/m 22,5 km/h (4 Bft) 100,00 %
19.08.2019 09:08 16,1 C 18,9 C 15,6 C 87 % 1014,5 hPa 0,0 l/m 2 min 0 min 327 W/m 12,9 km/h (3 Bft) 97,87 %
19.08.2019 09:10 16,2 C 19,4 C 15,6 C 86 % 1014,4 hPa 0,0 l/m 2 min 0 min 347 W/m 16,1 km/h (3 Bft) 97,87 %
19.08.2019 09:12 16,3 C 18,9 C 16,7 C 86 % 1014,4 hPa 0,0 l/m 2 min 0 min 355 W/m 16,1 km/h (3 Bft) 100,00 %
19.08.2019 09:14 16,4 C 19,4 C 18,3 C 85 % 1014,5 hPa 0,0 l/m 2 min 0 min 364 W/m 19,3 km/h (3 Bft) 100,00 %
19.08.2019 09:15 16,5 C 20,0 C 18,3 C 85 % 1014,4 hPa 0,0 l/m 1 min 0 min 360 W/m 19,3 km/h (3 Bft) 100,00 %
19.08.2019 09:16 16,5 C 20,6 C 17,8 C 85 % 1015,0 hPa 0,0 l/m 1 min 0 min 361 W/m 6,4 km/h (2 Bft) 100,00 %
19.08.2019 09:18 16,7 C 20,6 C 17,2 C 85 % 1015,4 hPa 0,0 l/m 2 min 0 min 379 W/m 6,4 km/h (2 Bft) 98,33 %
19.08.2019 09:20 16,8 C 20,0 C 17,2 C 85 % 1015,4 hPa 0,0 l/m 2 min 0 min 384 W/m 16,1 km/h (3 Bft) 97,14 %
19.08.2019 09:22 16,8 C 20,6 C 18,3 C 84 % 1015,4 hPa 0,0 l/m 2 min 0 min 387 W/m 16,1 km/h (3 Bft) 100,00 %
19.08.2019 09:24 16,9 C 20,6 C 19,4 C 83 % 1015,5 hPa 0,0 l/m 2 min 0 min 395 W/m 22,5 km/h (4 Bft) 100,00 %
19.08.2019 09:26 17,1 C 20,0 C 19,4 C 83 % 1015,5 hPa 0,0 l/m 2 min 0 min 403 W/m 22,5 km/h (4 Bft) 96,36 %
19.08.2019 09:28 17,1 C 20,6 C 20,0 C 82 % 1015,4 hPa 0,0 l/m 2 min 0 min 409 W/m 16,1 km/h (3 Bft) 95,92 %
19.08.2019 09:30 17,2 C 20,0 C 19,4 C 82 % 1015,4 hPa 0,0 l/m 2 min 0 min 424 W/m 19,3 km/h (3 Bft) 100,00 %
19.08.2019 09:32 17,3 C 20,0 C 19,4 C 81 % 1015,4 hPa 0,0 l/m 2 min 0 min 423 W/m 25,7 km/h (4 Bft) 97,14 %
19.08.2019 09:34 17,3 C 20,6 C 20,0 C 81 % 1015,4 hPa 0,0 l/m 2 min 0 min 428 W/m 12,9 km/h (3 Bft) 97,92 %
19.08.2019 09:36 17,4 C 20,0 C 19,4 C 80 % 1015,4 hPa 0,0 l/m 2 min 0 min 435 W/m 29,0 km/h (5 Bft) 98,11 %
19.08.2019 09:38 17,4 C 20,0 C 20,0 C 80 % 1015,4 hPa 0,0 l/m 2 min 0 min 444 W/m 16,1 km/h (3 Bft) 95,92 %
19.08.2019 09:40 17,5 C 20,6 C 20,6 C 80 % 1015,3 hPa 0,0 l/m 2 min 0 min 450 W/m 22,5 km/h (4 Bft) 94,00 %
19.08.2019 09:42 17,6 C 20,6 C 21,7 C 80 % 1015,3 hPa 0,0 l/m 2 min 0 min 457 W/m 16,1 km/h (3 Bft) 91,43 %
19.08.2019 09:44 17,6 C 21,1 C 21,1 C 79 % 1015,3 hPa 0,0 l/m 2 min 0 min 461 W/m 19,3 km/h (3 Bft) 93,75 %
19.08.2019 09:46 17,7 C 21,1 C 20,6 C 78 % 1015,3 hPa 0,0 l/m 2 min 0 min 468 W/m 19,3 km/h (3 Bft) 94,55 %
19.08.2019 09:48 17,7 C 21,1 C 21,1 C 79 % 1015,3 hPa 0,0 l/m 2 min 0 min 482 W/m 16,1 km/h (3 Bft) 94,00 %
19.08.2019 09:50 17,8 C 20,6 C 21,1 C 79 % 1015,3 hPa 0,0 l/m 2 min 0 min 485 W/m 25,7 km/h (4 Bft) 91,43 %
19.08.2019 09:52 17,9 C 21,1 C 21,1 C 79 % 1015,2 hPa 0,0 l/m 2 min 0 min 499 W/m 16,1 km/h (3 Bft) 93,62 %
19.08.2019 09:54 17,9 C 21,7 C 21,1 C 79 % 1015,2 hPa 0,0 l/m 2 min 0 min 496 W/m 9,7 km/h (2 Bft) 92,73 %
19.08.2019 09:56 18,0 C 21,7 C 21,1 C 79 % 1015,2 hPa 0,0 l/m 2 min 0 min 501 W/m 19,3 km/h (3 Bft) 92,00 %
19.08.2019 09:58 18,1 C 22,2 C 21,7 C 78 % 1015,3 hPa 0,0 l/m 2 min 0 min 509 W/m 16,1 km/h (3 Bft) 91,89 %
19.08.2019 10:00 18,2 C 22,8 C 22,2 C 79 % 1015,3 hPa 0,0 l/m 2 min 0 min 527 W/m 9,7 km/h (2 Bft) 93,62 %
19.08.2019 10:02 18,2 C 22,2 C 21,7 C 78 % 1015,3 hPa 0,0 l/m 2 min 0 min 538 W/m 32,2 km/h (5 Bft) 92,45 %
19.08.2019 10:04 18,3 C 22,2 C 21,7 C 77 % 1015,4 hPa 0,0 l/m 2 min 0 min 560 W/m 16,1 km/h (3 Bft) 93,48 %
19.08.2019 10:06 18,3 C 22,2 C 22,8 C 77 % 1015,3 hPa 0,0 l/m 2 min 0 min 568 W/m 16,1 km/h (3 Bft) 93,62 %
19.08.2019 10:08 18,4 C 21,1 C 22,2 C 77 % 1015,3 hPa 0,0 l/m 2 min 0 min 524 W/m 22,5 km/h (4 Bft) 92,86 %
19.08.2019 10:10 18,4 C 21,1 C 21,1 C 75 % 1015,4 hPa 0,0 l/m 2 min 0 min 452 W/m 22,5 km/h (4 Bft) 92,00 %
19.08.2019 10:12 18,4 C 22,2 C 21,7 C 76 % 1015,3 hPa 0,0 l/m 2 min 0 min 619 W/m 16,1 km/h (3 Bft) 93,75 %
19.08.2019 10:14 18,4 C 20,6 C 20,6 C 76 % 1015,4 hPa 0,0 l/m 2 min 0 min 582 W/m 19,3 km/h (3 Bft) 91,67 %
19.08.2019 10:16 18,4 C 21,7 C 21,7 C 76 % 1015,4 hPa 0,0 l/m 2 min 0 min 551 W/m 9,7 km/h (2 Bft) 94,44 %
19.08.2019 10:18 18,5 C 22,2 C 22,2 C 77 % 1015,3 hPa 0,0 l/m 2 min 0 min 613 W/m 19,3 km/h (3 Bft) 94,55 %
19.08.2019 10:20 18,6 C 21,7 C 21,1 C 76 % 1015,3 hPa 0,0 l/m 2 min 0 min 626 W/m 25,7 km/h (4 Bft) 96,00 %
19.08.2019 10:22 18,5 C 20,6 C 20,6 C 75 % 1015,4 hPa 0,0 l/m 2 min 0 min 606 W/m 19,3 km/h (3 Bft) 95,92 %
19.08.2019 10:24 18,6 C 22,2 C 22,2 C 76 % 1015,4 hPa 0,0 l/m 2 min 0 min 614 W/m 22,5 km/h (4 Bft) 94,44 %
19.08.2019 10:26 18,6 C 22,2 C 21,7 C 76 % 1015,4 hPa 0,0 l/m 2 min 0 min 656 W/m 9,7 km/h (2 Bft) 97,87 %
19.08.2019 10:28 18,6 C 21,7 C 21,7 C 76 % 1015,5 hPa 0,0 l/m 2 min 0 min 689 W/m 19,3 km/h (3 Bft) 96,36 %
19.08.2019 10:30 18,7 C 20,6 C 20,6 C 76 % 1015,3 hPa 0,0 l/m 2 min 0 min 335 W/m 25,7 km/h (4 Bft) 94,00 %
19.08.2019 10:32 18,7 C 21,1 C 21,1 C 76 % 1015,4 hPa 0,0 l/m 2 min 0 min 569 W/m 16,1 km/h (3 Bft) 100,00 %
19.08.2019 10:34 18,6 C 19,4 C 18,9 C 75 % 1015,4 hPa 0,0 l/m 2 min 0 min 455 W/m 19,3 km/h (3 Bft) 97,87 %
19.08.2019 10:36 18,6 C 21,1 C 20,6 C 76 % 1015,4 hPa 0,0 l/m 0 min 0 min 204 W/m 12,9 km/h (3 Bft) 96,36 %
19.08.2019 10:38 18,6 C 20,6 C 20,6 C 76 % 1015,4 hPa 0,0 l/m 0 min 0 min 206 W/m 12,9 km/h (3 Bft) 97,83 %
19.08.2019 10:40 18,6 C 19,4 C 19,4 C 77 % 1015,4 hPa 0,0 l/m 0 min 0 min 147 W/m 16,1 km/h (3 Bft) 95,74 %
19.08.2019 10:42 18,5 C 18,9 C 18,3 C 76 % 1015,4 hPa 0,0 l/m 0 min 0 min 151 W/m 19,3 km/h (3 Bft) 96,00 %
19.08.2019 10:44 18,4 C 18,9 C 18,3 C 76 % 1015,4 hPa 0,0 l/m 0 min 0 min 207 W/m 25,7 km/h (4 Bft) 97,22 %
19.08.2019 10:46 18,4 C 20,0 C 19,4 C 76 % 1015,5 hPa 0,0 l/m 0 min 0 min 253 W/m 16,1 km/h (3 Bft) 97,87 %
19.08.2019 10:48 18,3 C 20,6 C 20,0 C 77 % 1015,4 hPa 0,0 l/m 0 min 0 min 253 W/m 6,4 km/h (2 Bft) 98,15 %
19.08.2019 10:50 18,3 C 20,6 C 20,0 C 77 % 1015,5 hPa 0,0 l/m 0 min 0 min 253 W/m 19,3 km/h (3 Bft) 98,00 %
19.08.2019 10:52 18,3 C 20,0 C 20,0 C 76 % 1015,4 hPa 0,0 l/m 0 min 0 min 253 W/m 19,3 km/h (3 Bft) 97,87 %
19.08.2019 10:54 18,4 C 20,0 C 18,9 C 76 % 1015,4 hPa 0,0 l/m 0 min 0 min 184 W/m 12,9 km/h (3 Bft) 97,87 %
19.08.2019 10:56 18,4 C 21,1 C 20,0 C 77 % 1015,4 hPa 0,0 l/m 0 min 0 min 202 W/m 9,7 km/h (2 Bft) 94,44 %
19.08.2019 10:58 18,4 C 22,2 C 21,7 C 77 % 1015,4 hPa 0,0 l/m 0 min 0 min 260 W/m 16,1 km/h (3 Bft) 97,87 %
19.08.2019 11:00 18,5 C 20,6 C 20,6 C 76 % 1015,4 hPa 0,0 l/m 2 min 0 min 601 W/m 19,3 km/h (3 Bft) 98,15 %
19.08.2019 11:02 18,5 C 20,0 C 19,4 C 76 % 1015,4 hPa 0,0 l/m 0 min 0 min 175 W/m 16,1 km/h (3 Bft) 96,00 %
19.08.2019 11:04 18,4 C 20,0 C 19,4 C 76 % 1015,4 hPa 0,0 l/m 0 min 0 min 176 W/m 9,7 km/h (2 Bft) 100,00 %
19.08.2019 11:06 18,4 C 20,0 C 19,4 C 75 % 1015,4 hPa 0,0 l/m 0 min 0 min 182 W/m 12,9 km/h (3 Bft) 95,74 %
19.08.2019 11:08 18,5 C 20,0 C 20,0 C 76 % 1015,4 hPa 0,0 l/m 0 min 0 min 200 W/m 16,1 km/h (3 Bft) 100,00 %
19.08.2019 11:10 18,5 C 19,4 C 18,9 C 76 % 1015,3 hPa 0,0 l/m 0 min 0 min 177 W/m 12,9 km/h (3 Bft) 100,00 %
19.08.2019 11:12 18,5 C 20,6 C 20,0 C 76 % 1015,3 hPa 0,0 l/m 0 min 0 min 195 W/m 12,9 km/h (3 Bft) 100,00 %
19.08.2019 11:14 18,5 C 19,4 C 18,9 C 76 % 1015,3 hPa 0,0 l/m 0 min 0 min 152 W/m 9,7 km/h (2 Bft) 100,00 %
19.08.2019 11:16 18,5 C 19,4 C 18,9 C 76 % 1015,3 hPa 0,0 l/m 0 min 0 min 175 W/m 9,7 km/h (2 Bft) 96,36 %
19.08.2019 11:18 18,4 C 18,9 C 18,3 C 75 % 1015,3 hPa 0,0 l/m 0 min 0 min 130 W/m 16,1 km/h (3 Bft) 100,00 %
19.08.2019 11:20 18,4 C 20,6 C 18,3 C 75 % 1015,4 hPa 0,0 l/m 0 min 0 min 160 W/m 16,1 km/h (3 Bft) 100,00 %
19.08.2019 11:22 18,4 C 21,1 C 18,9 C 75 % 1015,3 hPa 0,0 l/m 0 min 0 min 165 W/m 12,9 km/h (3 Bft) 100,00 %
19.08.2019 11:24 18,5 C 22,2 C 19,4 C 75 % 1015,3 hPa 0,0 l/m 0 min 0 min 327 W/m 12,9 km/h (3 Bft) 100,00 %
19.08.2019 11:26 18,6 C 24,4 C 19,4 C 75 % 1015,3 hPa 0,0 l/m 2 min 0 min 773 W/m 12,9 km/h (3 Bft) 100,00 %
19.08.2019 11:28 18,8 C 22,2 C 19,4 C 75 % 1015,3 hPa 0,0 l/m 2 min 0 min 442 W/m 22,5 km/h (4 Bft) 100,00 %
19.08.2019 11:30 18,9 C 22,2 C 19,4 C 74 % 1015,3 hPa 0,0 l/m 0 min 0 min 179 W/m 19,3 km/h (3 Bft) 100,00 %
19.08.2019 11:32 19,0 C 23,9 C 20,0 C 74 % 1015,4 hPa 0,0 l/m 2 min 0 min 445 W/m 12,9 km/h (3 Bft) 100,00 %
19.08.2019 11:34 19,1 C 21,7 C 19,4 C 73 % 1015,3 hPa 0,0 l/m 2 min 0 min 434 W/m 9,7 km/h (2 Bft) 100,00 %
19.08.2019 11:36 19,1 C 22,2 C 19,4 C 73 % 1015,3 hPa 0,0 l/m 0 min 0 min 176 W/m 9,7 km/h (2 Bft) 100,00 %
19.08.2019 11:38 19,2 C 23,9 C 19,4 C 73 % 1015,4 hPa 0,0 l/m 2 min 0 min 760 W/m 16,1 km/h (3 Bft) 100,00 %
19.08.2019 11:40 19,3 C 22,2 C 19,4 C 72 % 1015,4 hPa 0,0 l/m 2 min 0 min 693 W/m 19,3 km/h (3 Bft) 100,00 %
19.08.2019 11:42 19,3 C 22,2 C 19,4 C 72 % 1015,4 hPa 0,0 l/m 0 min 0 min 202 W/m 12,9 km/h (3 Bft) 100,00 %
19.08.2019 11:44 19,3 C 20,6 C 18,9 C 70 % 1015,5 hPa 0,0 l/m 0 min 0 min 200 W/m 16,1 km/h (3 Bft) 100,00 %
19.08.2019 11:46 19,3 C 20,0 C 18,9 C 70 % 1015,5 hPa 0,0 l/m 0 min 0 min 159 W/m 9,7 km/h (2 Bft) 100,00 %
19.08.2019 11:48 19,3 C 19,4 C 18,3 C 71 % 1015,4 hPa 0,0 l/m 0 min 0 min 145 W/m 16,1 km/h (3 Bft) 100,00 %
19.08.2019 11:50 19,3 C 18,9 C 18,3 C 71 % 1015,5 hPa 0,0 l/m 0 min 0 min 121 W/m 19,3 km/h (3 Bft) 100,00 %
19.08.2019 11:52 19,2 C 20,6 C 18,3 C 72 % 1015,4 hPa 0,0 l/m 0 min 0 min 136 W/m 9,7 km/h (2 Bft) 100,00 %
19.08.2019 11:54 19,2 C 22,2 C 18,9 C 72 % 1015,4 hPa 0,0 l/m 2 min 0 min 434 W/m 16,1 km/h (3 Bft) 97,87 %
19.08.2019 11:56 19,2 C 20,6 C 18,9 C 72 % 1015,4 hPa 0,0 l/m 2 min 0 min 500 W/m 6,4 km/h (2 Bft) 100,00 %
19.08.2019 11:58 19,3 C 20,6 C 18,9 C 72 % 1015,3 hPa 0,0 l/m 0 min 0 min 155 W/m 9,7 km/h (2 Bft) 100,00 %
19.08.2019 12:00 19,3 C 20,6 C 18,9 C 72 % 1015,3 hPa 0,0 l/m 0 min 0 min 177 W/m 9,7 km/h (2 Bft) 97,87 %
19.08.2019 12:02 19,3 C 20,6 C 18,9 C 72 % 1015,3 hPa 0,0 l/m 0 min 0 min 213 W/m 16,1 km/h (3 Bft) 100,00 %
19.08.2019 12:04 19,2 C 21,7 C 18,9 C 72 % 1015,3 hPa 0,0 l/m 0 min 0 min 174 W/m 9,7 km/h (2 Bft) 97,87 %
19.08.2019 12:08 19,4 C 23,3 C 19,4 C 72 % 1015,3 hPa 0,0 l/m 0 min 0 min 198 W/m 9,7 km/h (2 Bft) 96,08 %
19.08.2019 12:10 19,4 C 23,9 C 20,0 C 71 % 1015,3 hPa 0,0 l/m 2 min 0 min 912 W/m 16,1 km/h (3 Bft) 93,88 %
19.08.2019 12:12 19,6 C 25,0 C 20,6 C 71 % 1015,4 hPa 0,0 l/m 2 min 0 min 931 W/m 19,3 km/h (3 Bft) 97,22 %
19.08.2019 12:14 19,7 C 25,0 C 20,6 C 70 % 1015,3 hPa 0,0 l/m 2 min 0 min 944 W/m 16,1 km/h (3 Bft) 95,74 %
19.08.2019 12:16 19,8 C 23,3 C 20,0 C 70 % 1015,4 hPa 0,0 l/m 2 min 0 min 944 W/m 22,5 km/h (4 Bft) 98,18 %
19.08.2019 12:18 19,9 C 21,7 C 19,4 C 69 % 1015,2 hPa 0,0 l/m 0 min 0 min 320 W/m 12,9 km/h (3 Bft) 98,00 %
19.08.2019 12:20 19,9 C 20,6 C 19,4 C 68 % 1015,3 hPa 0,0 l/m 0 min 0 min 208 W/m 19,3 km/h (3 Bft) 97,22 %
19.08.2019 12:22 19,8 C 20,0 C 18,9 C 68 % 1015,3 hPa 0,0 l/m 0 min 0 min 201 W/m 12,9 km/h (3 Bft) 97,83 %
19.08.2019 12:24 19,9 C 22,2 C 19,4 C 70 % 1015,1 hPa 0,0 l/m 0 min 0 min 232 W/m 6,4 km/h (2 Bft) 96,36 %
19.08.2019 12:26 19,9 C 21,7 C 20,0 C 69 % 1015,2 hPa 0,0 l/m 0 min 0 min 237 W/m 16,1 km/h (3 Bft) 96,00 %
19.08.2019 12:28 19,9 C 22,2 C 20,0 C 68 % 1015,1 hPa 0,0 l/m 0 min 0 min 296 W/m 16,1 km/h (3 Bft) 97,22 %
19.08.2019 12:30 19,9 C 22,2 C 20,0 C 69 % 1015,2 hPa 0,0 l/m 0 min 0 min 311 W/m 16,1 km/h (3 Bft) 97,87 %
19.08.2019 12:32 19,9 C 22,2 C 20,0 C 68 % 1015,1 hPa 0,0 l/m 0 min 0 min 301 W/m 16,1 km/h (3 Bft) 95,74 %
19.08.2019 12:34 20,0 C 23,9 C 20,6 C 67 % 1015,2 hPa 0,0 l/m 2 min 0 min 424 W/m 16,1 km/h (3 Bft) 93,48 %
19.08.2019 12:36 20,1 C 23,9 C 20,6 C 67 % 1015,3 hPa 0,0 l/m 2 min 0 min 977 W/m 29,0 km/h (5 Bft) 95,74 %
19.08.2019 12:38 20,2 C 22,2 C 20,0 C 68 % 1015,2 hPa 0,0 l/m 2 min 0 min 863 W/m 16,1 km/h (3 Bft) 96,36 %
19.08.2019 12:40 20,2 C 23,3 C 20,6 C 69 % 1015,2 hPa 0,0 l/m 0 min 0 min 216 W/m 12,9 km/h (3 Bft) 95,74 %
19.08.2019 12:42 20,3 C 22,2 C 20,6 C 70 % 1015,3 hPa 0,0 l/m 0 min 0 min 207 W/m 9,7 km/h (2 Bft) 95,74 %
19.08.2019 12:44 20,4 C 21,7 C 20,0 C 70 % 1015,3 hPa 0,0 l/m 0 min 0 min 210 W/m 16,1 km/h (3 Bft) 95,74 %
19.08.2019 12:46 20,4 C 21,1 C 20,0 C 70 % 1015,3 hPa 0,0 l/m 0 min 0 min 165 W/m 12,9 km/h (3 Bft) 95,65 %
19.08.2019 12:48 20,4 C 21,1 C 19,4 C 68 % 1015,3 hPa 0,0 l/m 0 min 0 min 192 W/m 16,1 km/h (3 Bft) 97,87 %
19.08.2019 12:50 20,4 C 22,2 C 20,0 C 69 % 1015,3 hPa 0,0 l/m 0 min 0 min 216 W/m 9,7 km/h (2 Bft) 97,87 %
19.08.2019 12:52 20,4 C 22,2 C 20,0 C 68 % 1015,3 hPa 0,0 l/m 0 min 0 min 214 W/m 6,4 km/h (2 Bft) 95,74 %
19.08.2019 12:54 20,4 C 21,7 C 20,6 C 67 % 1015,3 hPa 0,0 l/m 0 min 0 min 217 W/m 16,1 km/h (3 Bft) 97,87 %
19.08.2019 12:56 20,4 C 22,8 C 20,6 C 66 % 1015,3 hPa 0,0 l/m 0 min 0 min 179 W/m 12,9 km/h (3 Bft) 97,83 %
19.08.2019 12:58 20,4 C 25,0 C 20,6 C 66 % 1015,3 hPa 0,0 l/m 2 min 0 min 748 W/m 19,3 km/h (3 Bft) 95,74 %
19.08.2019 13:00 20,6 C 24,4 C 21,1 C 65 % 1015,3 hPa 0,0 l/m 2 min 0 min 942 W/m 25,7 km/h (4 Bft) 97,87 %
19.08.2019 13:02 20,6 C 23,9 C 21,1 C 64 % 1015,2 hPa 0,0 l/m 2 min 0 min 942 W/m 22,5 km/h (4 Bft) 97,87 %
19.08.2019 13:04 20,7 C 24,4 C 21,1 C 64 % 1015,3 hPa 0,0 l/m 2 min 0 min 942 W/m 16,1 km/h (3 Bft) 97,87 %
19.08.2019 13:06 20,8 C 24,4 C 21,1 C 65 % 1015,2 hPa 0,0 l/m 2 min 0 min 946 W/m 9,7 km/h (2 Bft) 97,87 %
19.08.2019 13:08 20,9 C 25,0 C 21,1 C 64 % 1015,3 hPa 0,0 l/m 2 min 0 min 940 W/m 16,1 km/h (3 Bft) 97,83 %
19.08.2019 13:10 21,1 C 26,1 C 21,7 C 64 % 1015,3 hPa 0,0 l/m 2 min 0 min 943 W/m 12,9 km/h (3 Bft) 97,87 %
19.08.2019 13:12 21,3 C 26,1 C 21,7 C 64 % 1015,3 hPa 0,0 l/m 2 min 0 min 937 W/m 25,7 km/h (4 Bft) 97,87 %
19.08.2019 13:14 21,4 C 26,1 C 21,7 C 62 % 1015,3 hPa 0,0 l/m 2 min 0 min 982 W/m 22,5 km/h (4 Bft) 97,87 %
19.08.2019 13:16 21,4 C 23,9 C 21,1 C 61 % 1015,3 hPa 0,0 l/m 2 min 0 min 986 W/m 22,5 km/h (4 Bft) 97,87 %
19.08.2019 13:18 21,5 C 26,1 C 21,7 C 61 % 1015,3 hPa 0,0 l/m 2 min 0 min 1017 W/m 22,5 km/h (4 Bft) 97,87 %
19.08.2019 13:20 21,6 C 26,1 C 21,7 C 61 % 1015,2 hPa 0,0 l/m 2 min 0 min 1069 W/m 25,7 km/h (4 Bft) 97,83 %
19.08.2019 13:22 21,7 C 26,1 C 22,2 C 62 % 1015,3 hPa 0,0 l/m 2 min 0 min 465 W/m 12,9 km/h (3 Bft) 97,92 %
19.08.2019 13:24 21,8 C 25,6 C 21,7 C 62 % 1015,3 hPa 0,0 l/m 0 min 0 min 322 W/m 16,1 km/h (3 Bft) 97,87 %
19.08.2019 13:26 21,8 C 24,4 C 21,7 C 62 % 1015,3 hPa 0,0 l/m 0 min 0 min 313 W/m 16,1 km/h (3 Bft) 97,87 %
19.08.2019 13:28 21,8 C 23,9 C 21,7 C 62 % 1015,3 hPa 0,0 l/m 0 min 0 min 270 W/m 16,1 km/h (3 Bft) 97,87 %
19.08.2019 13:30 21,9 C 25,0 C 22,2 C 61 % 1015,3 hPa 0,0 l/m 2 min 0 min 865 W/m 16,1 km/h (3 Bft) 100,00 %
19.08.2019 13:32 21,9 C 23,3 C 21,7 C 61 % 1015,4 hPa 0,0 l/m 2 min 0 min 461 W/m 16,1 km/h (3 Bft) 97,83 %
19.08.2019 13:34 21,9 C 25,0 C 21,7 C 62 % 1015,4 hPa 0,0 l/m 2 min 0 min 560 W/m 16,1 km/h (3 Bft) 100,00 %
19.08.2019 13:36 21,9 C 27,2 C 22,2 C 62 % 1015,4 hPa 0,0 l/m 2 min 0 min 991 W/m 9,7 km/h (2 Bft) 97,87 %
19.08.2019 13:38 22,0 C 27,2 C 22,8 C 62 % 1015,4 hPa 0,0 l/m 2 min 0 min 1000 W/m 16,1 km/h (3 Bft) 98,00 %
19.08.2019 13:40 22,1 C 27,8 C 22,8 C 63 % 1015,4 hPa 0,0 l/m 2 min 0 min 980 W/m 12,9 km/h (3 Bft) 97,83 %
19.08.2019 13:42 22,3 C 27,2 C 23,9 C 62 % 1015,4 hPa 0,0 l/m 2 min 0 min 967 W/m 19,3 km/h (3 Bft) 100,00 %
19.08.2019 13:44 22,3 C 25,6 C 23,3 C 62 % 1015,5 hPa 0,0 l/m 2 min 0 min 786 W/m 12,9 km/h (3 Bft) 100,00 %
19.08.2019 13:46 22,4 C 25,0 C 23,9 C 60 % 1015,4 hPa 0,0 l/m 0 min 0 min 222 W/m 19,3 km/h (3 Bft) 95,74 %
19.08.2019 13:48 22,4 C 25,6 C 24,4 C 61 % 1015,4 hPa 0,0 l/m 0 min 0 min 229 W/m 9,7 km/h (2 Bft) 97,87 %
19.08.2019 13:50 22,4 C 25,0 C 23,3 C 60 % 1015,4 hPa 0,0 l/m 0 min 0 min 224 W/m 12,9 km/h (3 Bft) 97,87 %
19.08.2019 13:52 22,4 C 26,7 C 26,1 C 61 % 1015,4 hPa 0,0 l/m 2 min 0 min 504 W/m 9,7 km/h (2 Bft) 97,87 %
19.08.2019 13:54 22,5 C 25,0 C 25,0 C 60 % 1015,3 hPa 0,0 l/m 2 min 0 min 838 W/m 19,3 km/h (3 Bft) 97,87 %
19.08.2019 13:56 22,5 C 23,3 C 23,3 C 59 % 1015,4 hPa 0,0 l/m 0 min 0 min 166 W/m 16,1 km/h (3 Bft) 97,83 %
19.08.2019 13:58 22,4 C 22,8 C 22,8 C 58 % 1015,4 hPa 0,0 l/m 0 min 0 min 193 W/m 16,1 km/h (3 Bft) 97,87 %
19.08.2019 14:00 22,3 C 24,4 C 23,3 C 58 % 1015,4 hPa 0,0 l/m 0 min 0 min 233 W/m 16,1 km/h (3 Bft) 97,87 %
19.08.2019 14:02 22,4 C 27,2 C 26,7 C 61 % 1015,4 hPa 0,0 l/m 2 min 0 min 798 W/m 12,9 km/h (3 Bft) 97,87 %
19.08.2019 14:04 22,5 C 27,8 C 27,8 C 60 % 1015,4 hPa 0,0 l/m 2 min 0 min 995 W/m 9,7 km/h (2 Bft) 97,87 %
19.08.2019 14:06 22,6 C 26,7 C 27,2 C 59 % 1015,4 hPa 0,0 l/m 2 min 0 min 986 W/m 16,1 km/h (3 Bft) 97,87 %
19.08.2019 14:08 22,6 C 25,0 C 24,4 C 58 % 1015,4 hPa 0,0 l/m 2 min 0 min 986 W/m 19,3 km/h (3 Bft) 98,08 %
19.08.2019 14:10 22,6 C 25,0 C 24,4 C 57 % 1015,5 hPa 0,0 l/m 2 min 0 min 558 W/m 32,2 km/h (5 Bft) 97,87 %
19.08.2019 14:12 22,6 C 27,2 C 27,2 C 57 % 1015,4 hPa 0,0 l/m 2 min 0 min 1014 W/m 29,0 km/h (5 Bft) 97,87 %
19.08.2019 14:14 22,7 C 27,2 C 27,2 C 59 % 1015,4 hPa 0,0 l/m 2 min 0 min 974 W/m 16,1 km/h (3 Bft) 97,87 %
19.08.2019 14:16 22,8 C 26,1 C 26,1 C 59 % 1015,4 hPa 0,0 l/m 2 min 0 min 976 W/m 16,1 km/h (3 Bft) 95,74 %
19.08.2019 14:18 22,8 C 24,4 C 24,4 C 58 % 1015,4 hPa 0,0 l/m 2 min 0 min 524 W/m 12,9 km/h (3 Bft) 97,83 %
19.08.2019 14:20 22,8 C 23,3 C 22,8 C 58 % 1015,4 hPa 0,0 l/m 0 min 0 min 170 W/m 25,7 km/h (4 Bft) 95,74 %
19.08.2019 14:22 22,7 C 22,2 C 22,2 C 56 % 1015,4 hPa 0,0 l/m 0 min 0 min 248 W/m 25,7 km/h (4 Bft) 97,87 %
19.08.2019 14:24 22,6 C 23,9 C 22,2 C 56 % 1015,4 hPa 0,0 l/m 0 min 0 min 366 W/m 22,5 km/h (4 Bft) 97,87 %
19.08.2019 14:26 22,6 C 26,1 C 23,3 C 58 % 1015,5 hPa 0,0 l/m 2 min 0 min 994 W/m 22,5 km/h (4 Bft) 97,87 %
19.08.2019 14:28 22,7 C 27,2 C 23,3 C 59 % 1015,4 hPa 0,0 l/m 2 min 0 min 1022 W/m 9,7 km/h (2 Bft) 97,87 %
19.08.2019 14:30 22,7 C 27,8 C 23,3 C 58 % 1015,4 hPa 0,0 l/m 2 min 0 min 1004 W/m 19,3 km/h (3 Bft) 93,48 %
19.08.2019 14:32 22,8 C 26,7 C 23,3 C 58 % 1015,3 hPa 0,0 l/m 2 min 0 min 977 W/m 19,3 km/h (3 Bft) 95,74 %
19.08.2019 14:34 22,8 C 26,1 C 22,8 C 57 % 1015,4 hPa 0,0 l/m 0 min 0 min 264 W/m 16,1 km/h (3 Bft) 95,74 %
19.08.2019 14:36 22,9 C 27,8 C 23,3 C 59 % 1015,4 hPa 0,0 l/m 2 min 0 min 685 W/m 9,7 km/h (2 Bft) 95,74 %
19.08.2019 14:38 23,0 C 27,8 C 23,3 C 59 % 1015,4 hPa 0,0 l/m 2 min 0 min 974 W/m 19,3 km/h (3 Bft) 95,74 %
19.08.2019 14:40 23,1 C 27,2 C 23,3 C 57 % 1015,5 hPa 0,0 l/m 2 min 0 min 941 W/m 29,0 km/h (5 Bft) 95,74 %
19.08.2019 14:42 23,1 C 27,2 C 23,3 C 57 % 1015,6 hPa 0,0 l/m 2 min 0 min 968 W/m 35,4 km/h (5 Bft) 95,65 %
19.08.2019 14:44 23,2 C 26,7 C 22,8 C 55 % 1015,6 hPa 0,0 l/m 2 min 0 min 972 W/m 32,2 km/h (5 Bft) 97,87 %
19.08.2019 14:46 23,2 C 27,2 C 23,3 C 56 % 1015,5 hPa 0,0 l/m 2 min 0 min 1006 W/m 9,7 km/h (2 Bft) 95,74 %
19.08.2019 14:48 23,2 C 25,6 C 22,8 C 57 % 1015,5 hPa 0,0 l/m 2 min 0 min 485 W/m 6,4 km/h (2 Bft) 93,62 %
19.08.2019 14:50 23,3 C 23,9 C 22,2 C 56 % 1015,5 hPa 0,0 l/m 0 min 0 min 187 W/m 9,7 km/h (2 Bft) 95,74 %
19.08.2019 14:52 23,2 C 25,6 C 22,2 C 56 % 1015,5 hPa 0,0 l/m 0 min 0 min 261 W/m 19,3 km/h (3 Bft) 93,62 %
19.08.2019 14:54 23,2 C 26,1 C 22,8 C 56 % 1015,5 hPa 0,0 l/m 2 min 0 min 938 W/m 25,7 km/h (4 Bft) 95,65 %
19.08.2019 14:56 23,2 C 26,7 C 22,8 C 56 % 1015,5 hPa 0,0 l/m 2 min 0 min 944 W/m 16,1 km/h (3 Bft) 93,62 %
19.08.2019 14:58 23,1 C 23,9 C 21,7 C 55 % 1015,6 hPa 0,0 l/m 2 min 0 min 565 W/m 22,5 km/h (4 Bft) 95,74 %
19.08.2019 15:00 23,1 C 22,2 C 21,7 C 55 % 1015,5 hPa 0,0 l/m 0 min 0 min 230 W/m 22,5 km/h (4 Bft) 97,87 %
19.08.2019 15:02 22,9 C 22,2 C 21,7 C 56 % 1015,5 hPa 0,0 l/m 0 min 0 min 234 W/m 9,7 km/h (2 Bft) 97,87 %
19.08.2019 15:04 22,9 C 22,2 C 21,7 C 56 % 1015,6 hPa 0,0 l/m 0 min 0 min 217 W/m 12,9 km/h (3 Bft) 97,87 %
19.08.2019 15:06 22,8 C 22,2 C 21,7 C 56 % 1015,5 hPa 0,0 l/m 0 min 0 min 203 W/m 12,9 km/h (3 Bft) 95,65 %
19.08.2019 15:08 22,7 C 24,4 C 21,7 C 56 % 1015,6 hPa 0,0 l/m 2 min 0 min 524 W/m 16,1 km/h (3 Bft) 98,00 %
19.08.2019 15:10 22,7 C 26,7 C 22,8 C 57 % 1015,5 hPa 0,0 l/m 2 min 0 min 975 W/m 16,1 km/h (3 Bft) 97,87 %
19.08.2019 15:12 22,7 C 26,1 C 22,8 C 56 % 1015,4 hPa 0,0 l/m 2 min 0 min 985 W/m 22,5 km/h (4 Bft) 97,87 %
19.08.2019 15:14 22,7 C 26,1 C 22,2 C 56 % 1015,6 hPa 0,0 l/m 2 min 0 min 984 W/m 19,3 km/h (3 Bft) 100,00 %
19.08.2019 15:16 22,7 C 26,7 C 22,8 C 57 % 1015,5 hPa 0,0 l/m 2 min 0 min 957 W/m 12,9 km/h (3 Bft) 100,00 %
19.08.2019 15:18 22,8 C 26,7 C 22,8 C 56 % 1015,5 hPa 0,0 l/m 2 min 0 min 921 W/m 22,5 km/h (4 Bft) 100,00 %
19.08.2019 15:20 22,8 C 26,7 C 22,8 C 56 % 1015,5 hPa 0,0 l/m 2 min 0 min 861 W/m 29,0 km/h (5 Bft) 97,87 %
19.08.2019 15:22 22,9 C 27,2 C 22,8 C 57 % 1015,5 hPa 0,0 l/m 2 min 0 min 849 W/m 12,9 km/h (3 Bft) 100,00 %
19.08.2019 15:24 22,9 C 28,3 C 23,3 C 57 % 1015,4 hPa 0,0 l/m 2 min 0 min 849 W/m 16,1 km/h (3 Bft) 100,00 %
19.08.2019 15:26 23,1 C 28,9 C 23,3 C 57 % 1015,3 hPa 0,0 l/m 2 min 0 min 848 W/m 16,1 km/h (3 Bft) 100,00 %
19.08.2019 15:28 23,2 C 28,9 C 23,3 C 56 % 1015,4 hPa 0,0 l/m 2 min 0 min 847 W/m 16,1 km/h (3 Bft) 100,00 %
19.08.2019 15:30 23,2 C 26,7 C 23,3 C 54 % 1015,4 hPa 0,0 l/m 2 min 0 min 858 W/m 12,9 km/h (3 Bft) 100,00 %
19.08.2019 15:32 23,3 C 26,7 C 22,8 C 54 % 1015,5 hPa 0,0 l/m 2 min 0 min 858 W/m 16,1 km/h (3 Bft) 97,87 %
19.08.2019 15:34 23,3 C 27,2 C 22,8 C 55 % 1015,4 hPa 0,0 l/m 2 min 0 min 832 W/m 29,0 km/h (5 Bft) 100,00 %
19.08.2019 15:36 23,4 C 27,2 C 23,3 C 54 % 1015,5 hPa 0,0 l/m 2 min 0 min 741 W/m 25,7 km/h (4 Bft) 97,87 %
19.08.2019 15:38 23,4 C 27,2 C 23,3 C 55 % 1015,5 hPa 0,0 l/m 2 min 0 min 838 W/m 16,1 km/h (3 Bft) 100,00 %
19.08.2019 15:40 23,5 C 27,2 C 22,8 C 55 % 1015,4 hPa 0,0 l/m 2 min 0 min 848 W/m 22,5 km/h (4 Bft) 100,00 %
19.08.2019 15:42 23,5 C 27,2 C 22,8 C 54 % 1015,4 hPa 0,0 l/m 2 min 0 min 482 W/m 16,1 km/h (3 Bft) 97,87 %
19.08.2019 15:44 23,6 C 27,8 C 23,3 C 55 % 1015,5 hPa 0,0 l/m 2 min 0 min 820 W/m 9,7 km/h (2 Bft) 97,87 %
19.08.2019 15:46 23,7 C 27,2 C 23,3 C 54 % 1015,4 hPa 0,0 l/m 2 min 0 min 865 W/m 25,7 km/h (4 Bft) 97,87 %
19.08.2019 15:48 23,7 C 25,0 C 22,8 C 54 % 1015,4 hPa 0,0 l/m 2 min 0 min 646 W/m 25,7 km/h (4 Bft) 97,87 %
19.08.2019 15:50 23,6 C 24,4 C 22,8 C 53 % 1015,3 hPa 0,0 l/m 0 min 0 min 224 W/m 22,5 km/h (4 Bft) 97,87 %
19.08.2019 15:52 23,6 C 25,6 C 22,8 C 54 % 1015,4 hPa 0,0 l/m 0 min 0 min 237 W/m 22,5 km/h (4 Bft) 97,83 %
19.08.2019 15:54 23,6 C 24,4 C 22,8 C 55 % 1015,3 hPa 0,0 l/m 0 min 0 min 218 W/m 12,9 km/h (3 Bft) 97,87 %
19.08.2019 15:56 23,5 C 23,3 C 22,2 C 53 % 1015,3 hPa 0,0 l/m 0 min 0 min 178 W/m 16,1 km/h (3 Bft) 97,87 %
19.08.2019 15:58 23,4 C 22,8 C 21,7 C 54 % 1015,3 hPa 0,0 l/m 0 min 0 min 205 W/m 29,0 km/h (5 Bft) 97,87 %
19.08.2019 16:00 23,4 C 22,8 C 21,7 C 54 % 1015,3 hPa 0,0 l/m 0 min 0 min 196 W/m 12,9 km/h (3 Bft) 97,87 %
19.08.2019 16:02 23,3 C 22,8 C 21,7 C 55 % 1015,4 hPa 0,0 l/m 0 min 0 min 177 W/m 12,9 km/h (3 Bft) 97,87 %
19.08.2019 16:04 23,2 C 25,0 C 22,2 C 55 % 1015,3 hPa 0,0 l/m 0 min 0 min 319 W/m 12,9 km/h (3 Bft) 95,65 %
19.08.2019 16:06 23,2 C 27,2 C 22,8 C 57 % 1015,2 hPa 0,0 l/m 2 min 0 min 835 W/m 9,7 km/h (2 Bft) 95,74 %
19.08.2019 16:08 23,3 C 27,8 C 22,8 C 56 % 1015,2 hPa 0,0 l/m 2 min 0 min 788 W/m 16,1 km/h (3 Bft) 97,87 %
19.08.2019 16:10 23,3 C 28,3 C 23,3 C 57 % 1015,2 hPa 0,0 l/m 2 min 0 min 774 W/m 22,5 km/h (4 Bft) 97,87 %
19.08.2019 16:12 23,4 C 27,2 C 23,3 C 54 % 1015,2 hPa 0,0 l/m 2 min 0 min 776 W/m 22,5 km/h (4 Bft) 97,87 %
19.08.2019 16:14 23,4 C 28,3 C 23,3 C 55 % 1015,1 hPa 0,0 l/m 2 min 0 min 773 W/m 9,7 km/h (2 Bft) 97,87 %
19.08.2019 16:16 23,5 C 26,1 C 23,3 C 55 % 1015,2 hPa 0,0 l/m 2 min 0 min 630 W/m 19,3 km/h (3 Bft) 95,65 %
19.08.2019 16:18 23,6 C 25,6 C 23,3 C 54 % 1015,2 hPa 0,0 l/m 0 min 0 min 184 W/m 9,7 km/h (2 Bft) 97,87 %
19.08.2019 16:20 23,6 C 26,7 C 23,9 C 54 % 1015,2 hPa 0,0 l/m 0 min 0 min 259 W/m 16,1 km/h (3 Bft) 93,62 %
19.08.2019 16:22 23,6 C 27,2 C 24,4 C 54 % 1015,1 hPa 0,0 l/m 2 min 0 min 838 W/m 12,9 km/h (3 Bft) 97,87 %
19.08.2019 16:24 23,6 C 27,2 C 24,4 C 54 % 1015,1 hPa 0,0 l/m 2 min 0 min 838 W/m 19,3 km/h (3 Bft) 97,87 %
19.08.2019 16:26 23,7 C 27,2 C 24,4 C 53 % 1015,1 hPa 0,0 l/m 2 min 0 min 720 W/m 25,7 km/h (4 Bft) 97,83 %
19.08.2019 16:28 23,7 C 26,7 C 24,4 C 54 % 1015,1 hPa 0,0 l/m 2 min 0 min 692 W/m 22,5 km/h (4 Bft) 97,87 %
19.08.2019 16:30 23,7 C 25,6 C 23,9 C 53 % 1015,1 hPa 0,0 l/m 2 min 0 min 692 W/m 12,9 km/h (3 Bft) 97,87 %
19.08.2019 16:32 23,7 C 23,9 C 22,8 C 55 % 1015,1 hPa 0,0 l/m 0 min 0 min 134 W/m 12,9 km/h (3 Bft) 97,87 %
19.08.2019 16:34 23,7 C 23,3 C 22,2 C 54 % 1015,1 hPa 0,0 l/m 0 min 0 min 142 W/m 12,9 km/h (3 Bft) 100,00 %
19.08.2019 16:36 23,6 C 23,3 C 21,7 C 55 % 1015,0 hPa 0,0 l/m 0 min 0 min 201 W/m 12,9 km/h (3 Bft) 100,00 %
19.08.2019 16:38 23,5 C 22,8 C 21,7 C 54 % 1015,1 hPa 0,0 l/m 0 min 0 min 219 W/m 9,7 km/h (2 Bft) 100,00 %
19.08.2019 16:40 23,4 C 23,3 C 22,2 C 54 % 1015,1 hPa 0,0 l/m 0 min 0 min 210 W/m 16,1 km/h (3 Bft) 95,74 %
19.08.2019 16:42 23,4 C 25,6 C 23,9 C 55 % 1015,0 hPa 0,0 l/m 2 min 0 min 435 W/m 16,1 km/h (3 Bft) 100,00 %
19.08.2019 16:44 23,4 C 25,6 C 23,3 C 55 % 1015,0 hPa 0,0 l/m 2 min 0 min 751 W/m 12,9 km/h (3 Bft) 100,00 %
19.08.2019 16:46 23,4 C 26,7 C 22,8 C 55 % 1015,1 hPa 0,0 l/m 2 min 0 min 706 W/m 12,9 km/h (3 Bft) 100,00 %
19.08.2019 16:48 23,4 C 26,7 C 22,8 C 55 % 1016,9 hPa 0,0 l/m 2 min 0 min 691 W/m 9,7 km/h (2 Bft) 100,00 %
19.08.2019 16:50 23,4 C 27,2 C 23,3 C 55 % 1017,0 hPa 0,0 l/m 2 min 0 min 701 W/m 16,1 km/h (3 Bft) 100,00 %
19.08.2019 16:52 23,4 C 25,6 C 22,8 C 55 % 1016,8 hPa 0,0 l/m 2 min 0 min 693 W/m 9,7 km/h (2 Bft) 100,00 %
19.08.2019 16:54 23,4 C 25,0 C 22,8 C 55 % 1016,9 hPa 0,0 l/m 0 min 0 min 275 W/m 16,1 km/h (3 Bft) 100,00 %
19.08.2019 16:56 23,4 C 25,6 C 22,8 C 55 % 1016,9 hPa 0,0 l/m 0 min 0 min 232 W/m 9,7 km/h (2 Bft) 100,00 %
19.08.2019 16:58 23,4 C 25,0 C 22,2 C 55 % 1016,9 hPa 0,0 l/m 0 min 0 min 217 W/m 12,9 km/h (3 Bft) 100,00 %
19.08.2019 17:00 23,4 C 26,1 C 22,8 C 56 % 1016,9 hPa 0,0 l/m 2 min 0 min 368 W/m 12,9 km/h (3 Bft) 100,00 %
19.08.2019 17:02 23,4 C 26,1 C 22,8 C 55 % 1016,9 hPa 0,0 l/m 2 min 0 min 624 W/m 12,9 km/h (3 Bft) 95,65 %
19.08.2019 17:04 23,4 C 26,1 C 23,3 C 54 % 1016,9 hPa 0,0 l/m 2 min 0 min 630 W/m 19,3 km/h (3 Bft) 98,18 %
19.08.2019 17:06 23,4 C 27,2 C 24,4 C 56 % 1016,9 hPa 0,0 l/m 2 min 0 min 622 W/m 9,7 km/h (2 Bft) 93,62 %
19.08.2019 17:08 23,4 C 26,7 C 25,6 C 56 % 1016,9 hPa 0,0 l/m 2 min 0 min 608 W/m 19,3 km/h (3 Bft) 97,83 %
19.08.2019 17:10 23,5 C 26,7 C 25,0 C 56 % 1016,9 hPa 0,0 l/m 2 min 0 min 588 W/m 9,7 km/h (2 Bft) 95,74 %
19.08.2019 17:12 23,5 C 26,1 C 23,9 C 55 % 1016,9 hPa 0,0 l/m 2 min 0 min 585 W/m 16,1 km/h (3 Bft) 97,87 %
19.08.2019 17:14 23,6 C 25,6 C 22,8 C 55 % 1016,9 hPa 0,0 l/m 2 min 0 min 494 W/m 9,7 km/h (2 Bft) 98,00 %
19.08.2019 17:16 23,5 C 23,9 C 22,2 C 55 % 1016,9 hPa 0,0 l/m 0 min 0 min 119 W/m 9,7 km/h (2 Bft) 97,87 %
19.08.2019 17:18 23,4 C 23,3 C 21,7 C 55 % 1017,0 hPa 0,0 l/m 0 min 0 min 129 W/m 16,1 km/h (3 Bft) 97,87 %
19.08.2019 17:20 23,3 C 22,8 C 21,7 C 54 % 1016,9 hPa 0,0 l/m 0 min 0 min 138 W/m 9,7 km/h (2 Bft) 94,44 %
19.08.2019 17:22 23,3 C 22,8 C 21,7 C 54 % 1016,8 hPa 0,0 l/m 0 min 0 min 137 W/m 12,9 km/h (3 Bft) 93,62 %
19.08.2019 17:24 23,2 C 22,8 C 21,7 C 55 % 1016,8 hPa 0,0 l/m 0 min 0 min 161 W/m 9,7 km/h (2 Bft) 95,74 %
19.08.2019 17:26 23,2 C 25,0 C 21,7 C 57 % 1016,9 hPa 0,0 l/m 2 min 0 min 443 W/m 9,7 km/h (2 Bft) 93,48 %
19.08.2019 17:28 23,2 C 26,7 C 22,2 C 56 % 1016,8 hPa 0,0 l/m 2 min 0 min 614 W/m 12,9 km/h (3 Bft) 95,74 %
19.08.2019 17:30 23,2 C 27,8 C 22,8 C 56 % 1016,8 hPa 0,0 l/m 2 min 0 min 612 W/m 9,7 km/h (2 Bft) 95,74 %
19.08.2019 17:32 23,3 C 28,3 C 22,8 C 57 % 1016,8 hPa 0,0 l/m 2 min 0 min 573 W/m 12,9 km/h (3 Bft) 95,74 %
19.08.2019 17:34 23,4 C 27,8 C 23,3 C 55 % 1016,9 hPa 0,0 l/m 2 min 0 min 557 W/m 9,7 km/h (2 Bft) 95,74 %
19.08.2019 17:36 23,4 C 27,8 C 23,3 C 56 % 1016,8 hPa 0,0 l/m 2 min 0 min 535 W/m 6,4 km/h (2 Bft) 95,74 %
19.08.2019 17:38 23,5 C 27,2 C 23,9 C 56 % 1016,8 hPa 0,0 l/m 2 min 0 min 515 W/m 12,9 km/h (3 Bft) 95,65 %
19.08.2019 17:40 23,6 C 27,8 C 23,3 C 55 % 1016,7 hPa 0,0 l/m 2 min 0 min 505 W/m 6,4 km/h (2 Bft) 95,74 %
19.08.2019 17:42 23,7 C 26,1 C 22,8 C 56 % 1016,8 hPa 0,0 l/m 2 min 0 min 476 W/m 9,7 km/h (2 Bft) 91,49 %
19.08.2019 17:44 23,7 C 24,4 C 22,2 C 55 % 1016,9 hPa 0,0 l/m 0 min 0 min 145 W/m 12,9 km/h (3 Bft) 93,62 %
19.08.2019 17:46 23,7 C 25,6 C 22,2 C 54 % 1016,8 hPa 0,0 l/m 2 min 0 min 328 W/m 12,9 km/h (3 Bft) 97,87 %
19.08.2019 17:48 23,7 C 26,1 C 22,2 C 54 % 1016,8 hPa 0,0 l/m 2 min 0 min 517 W/m 12,9 km/h (3 Bft) 97,83 %
19.08.2019 17:50 23,7 C 26,1 C 22,2 C 54 % 1016,8 hPa 0,0 l/m 2 min 0 min 495 W/m 9,7 km/h (2 Bft) 97,87 %
19.08.2019 17:52 23,7 C 26,1 C 22,8 C 53 % 1016,9 hPa 0,0 l/m 2 min 0 min 498 W/m 19,3 km/h (3 Bft) 97,87 %
19.08.2019 17:54 23,8 C 26,1 C 22,8 C 52 % 1016,8 hPa 0,0 l/m 2 min 0 min 513 W/m 25,7 km/h (4 Bft) 95,74 %
19.08.2019 17:56 23,8 C 26,1 C 22,8 C 53 % 1016,8 hPa 0,0 l/m 2 min 0 min 510 W/m 12,9 km/h (3 Bft) 97,87 %
19.08.2019 17:58 23,8 C 23,9 C 22,2 C 53 % 1016,8 hPa 0,0 l/m 0 min 0 min 195 W/m 9,7 km/h (2 Bft) 97,87 %
19.08.2019 18:00 23,7 C 23,9 C 22,2 C 53 % 1016,8 hPa 0,0 l/m 0 min 0 min 122 W/m 12,9 km/h (3 Bft) 97,83 %
19.08.2019 18:02 23,7 C 25,0 C 22,2 C 54 % 1016,9 hPa 0,0 l/m 2 min 0 min 344 W/m 9,7 km/h (2 Bft) 97,87 %
19.08.2019 18:04 23,6 C 23,9 C 21,7 C 54 % 1016,8 hPa 0,0 l/m 2 min 0 min 324 W/m 16,1 km/h (3 Bft) 97,87 %
19.08.2019 18:08 23,6 C 25,6 C 22,2 C 53 % 1016,9 hPa 0,0 l/m 4 min 0 min 375 W/m 19,3 km/h (3 Bft) 97,87 %
19.08.2019 18:10 23,6 C 25,0 C 22,2 C 53 % 1016,9 hPa 0,0 l/m 2 min 0 min 431 W/m 12,9 km/h (3 Bft) 97,87 %
19.08.2019 18:12 23,6 C 26,1 C 22,2 C 54 % 1016,8 hPa 0,0 l/m 2 min 0 min 460 W/m 9,7 km/h (2 Bft) 97,83 %
19.08.2019 18:14 23,6 C 25,0 C 22,2 C 53 % 1016,8 hPa 0,0 l/m 2 min 0 min 458 W/m 19,3 km/h (3 Bft) 95,74 %
19.08.2019 18:16 23,6 C 24,4 C 22,2 C 53 % 1016,8 hPa 0,0 l/m 2 min 0 min 194 W/m 16,1 km/h (3 Bft) 97,87 %
19.08.2019 18:18 23,5 C 25,0 C 21,7 C 53 % 1016,8 hPa 0,0 l/m 2 min 0 min 390 W/m 19,3 km/h (3 Bft) 97,87 %
19.08.2019 18:20 23,5 C 25,6 C 21,7 C 54 % 1016,8 hPa 0,0 l/m 2 min 0 min 388 W/m 16,1 km/h (3 Bft) 97,87 %
19.08.2019 18:22 23,5 C 25,6 C 21,7 C 54 % 1016,8 hPa 0,0 l/m 2 min 0 min 368 W/m 12,9 km/h (3 Bft) 100,00 %
19.08.2019 18:24 23,5 C 25,6 C 21,7 C 55 % 1016,9 hPa 0,0 l/m 2 min 0 min 373 W/m 19,3 km/h (3 Bft) 100,00 %
19.08.2019 18:26 23,5 C 26,1 C 21,7 C 55 % 1016,9 hPa 0,0 l/m 2 min 0 min 384 W/m 9,7 km/h (2 Bft) 100,00 %
19.08.2019 18:28 23,4 C 25,0 C 21,7 C 55 % 1016,8 hPa 0,0 l/m 2 min 0 min 369 W/m 9,7 km/h (2 Bft) 97,87 %
19.08.2019 18:30 23,4 C 25,0 C 21,7 C 53 % 1016,8 hPa 0,0 l/m 0 min 0 min 152 W/m 16,1 km/h (3 Bft) 100,00 %
19.08.2019 18:32 23,4 C 25,6 C 21,7 C 55 % 1016,9 hPa 0,0 l/m 2 min 0 min 354 W/m 6,4 km/h (2 Bft) 100,00 %
19.08.2019 18:34 23,4 C 25,0 C 21,7 C 55 % 1016,9 hPa 0,0 l/m 2 min 0 min 316 W/m 9,7 km/h (2 Bft) 100,00 %
19.08.2019 18:36 23,4 C 25,0 C 21,7 C 54 % 1016,9 hPa 0,0 l/m 2 min 0 min 314 W/m 12,9 km/h (3 Bft) 100,00 %
19.08.2019 18:38 23,3 C 23,9 C 21,7 C 54 % 1016,9 hPa 0,0 l/m 2 min 0 min 305 W/m 16,1 km/h (3 Bft) 100,00 %
19.08.2019 18:40 23,3 C 23,3 C 21,7 C 54 % 1017,0 hPa 0,0 l/m 2 min 0 min 295 W/m 12,9 km/h (3 Bft) 97,87 %
19.08.2019 18:42 23,2 C 23,3 C 21,1 C 54 % 1016,9 hPa 0,0 l/m 2 min 0 min 162 W/m 9,7 km/h (2 Bft) 100,00 %
19.08.2019 18:44 23,2 C 22,8 C 21,1 C 54 % 1017,0 hPa 0,0 l/m 2 min 0 min 188 W/m 16,1 km/h (3 Bft) 100,00 %
19.08.2019 18:46 23,1 C 22,2 C 21,1 C 55 % 1017,0 hPa 0,0 l/m 0 min 0 min 95 W/m 6,4 km/h (2 Bft) 97,83 %
19.08.2019 18:48 23,1 C 22,2 C 21,1 C 54 % 1017,0 hPa 0,0 l/m 2 min 0 min 244 W/m 16,1 km/h (3 Bft) 97,87 %
19.08.2019 18:50 23,0 C 22,2 C 21,1 C 55 % 1016,9 hPa 0,0 l/m 0 min 0 min 120 W/m 12,9 km/h (3 Bft) 97,87 %
19.08.2019 18:52 22,9 C 22,2 C 21,1 C 55 % 1017,0 hPa 0,0 l/m 0 min 0 min 108 W/m 9,7 km/h (2 Bft) 97,87 %
19.08.2019 18:54 22,9 C 22,2 C 21,1 C 55 % 1017,0 hPa 0,0 l/m 0 min 0 min 113 W/m 6,4 km/h (2 Bft) 97,87 %
19.08.2019 18:56 22,8 C 22,2 C 21,1 C 55 % 1017,0 hPa 0,0 l/m 0 min 0 min 124 W/m 9,7 km/h (2 Bft) 97,87 %
19.08.2019 18:58 22,8 C 22,2 C 21,1 C 55 % 1017,0 hPa 0,0 l/m 0 min 0 min 120 W/m 6,4 km/h (2 Bft) 97,83 %
19.08.2019 19:00 22,8 C 22,2 C 21,1 C 55 % 1017,0 hPa 0,0 l/m 0 min 0 min 107 W/m 12,9 km/h (3 Bft) 97,87 %
19.08.2019 19:02 22,7 C 22,2 C 21,1 C 55 % 1017,0 hPa 0,0 l/m 0 min 0 min 101 W/m 12,9 km/h (3 Bft) 97,87 %
19.08.2019 19:04 22,7 C 22,2 C 21,1 C 55 % 1017,0 hPa 0,0 l/m 0 min 0 min 115 W/m 9,7 km/h (2 Bft) 97,87 %
19.08.2019 19:06 22,7 C 22,2 C 21,1 C 55 % 1017,0 hPa 0,0 l/m 2 min 0 min 130 W/m 12,9 km/h (3 Bft) 97,87 %
19.08.2019 19:08 22,6 C 22,2 C 21,1 C 56 % 1017,0 hPa 0,0 l/m 2 min 0 min 128 W/m 9,7 km/h (2 Bft) 95,74 %
19.08.2019 19:10 22,6 C 22,2 C 21,1 C 56 % 1017,0 hPa 0,0 l/m 0 min 0 min 112 W/m 6,4 km/h (2 Bft) 97,83 %
19.08.2019 19:12 22,6 C 22,2 C 21,1 C 57 % 1017,0 hPa 0,0 l/m 2 min 0 min 123 W/m 9,7 km/h (2 Bft) 97,87 %
19.08.2019 19:14 22,6 C 22,2 C 21,1 C 57 % 1017,0 hPa 0,0 l/m 2 min 0 min 123 W/m 16,1 km/h (3 Bft) 97,87 %
19.08.2019 19:16 22,5 C 21,7 C 21,1 C 57 % 1017,0 hPa 0,0 l/m 0 min 0 min 102 W/m 9,7 km/h (2 Bft) 95,74 %
19.08.2019 19:18 22,4 C 21,7 C 21,1 C 57 % 1017,0 hPa 0,0 l/m 0 min 0 min 96 W/m 9,7 km/h (2 Bft) 97,87 %
19.08.2019 19:20 22,4 C 21,1 C 20,6 C 57 % 1017,1 hPa 0,0 l/m 0 min 0 min 87 W/m 16,1 km/h (3 Bft) 97,87 %
19.08.2019 19:22 22,3 C 21,1 C 20,6 C 57 % 1017,1 hPa 0,0 l/m 0 min 0 min 83 W/m 9,7 km/h (2 Bft) 97,83 %
19.08.2019 19:24 22,2 C 21,1 C 20,6 C 57 % 1017,0 hPa 0,0 l/m 0 min 0 min 74 W/m 12,9 km/h (3 Bft) 97,87 %
19.08.2019 19:26 22,2 C 21,1 C 20,6 C 57 % 1017,1 hPa 0,0 l/m 0 min 0 min 66 W/m 16,1 km/h (3 Bft) 97,87 %
19.08.2019 19:28 22,1 C 21,1 C 20,6 C 58 % 1017,2 hPa 0,0 l/m 0 min 0 min 62 W/m 6,4 km/h (2 Bft) 97,87 %
19.08.2019 19:30 22,1 C 20,6 C 20,0 C 58 % 1017,2 hPa 0,0 l/m 0 min 0 min 61 W/m 9,7 km/h (2 Bft) 97,87 %
19.08.2019 19:32 22,0 C 20,6 C 20,0 C 58 % 1017,2 hPa 0,0 l/m 0 min 0 min 55 W/m 12,9 km/h (3 Bft) 97,87 %
19.08.2019 19:34 21,9 C 20,6 C 20,0 C 59 % 1017,2 hPa 0,0 l/m 0 min 0 min 47 W/m 6,4 km/h (2 Bft) 95,65 %
19.08.2019 19:36 21,9 C 20,6 C 20,0 C 59 % 1017,2 hPa 0,0 l/m 0 min 0 min 43 W/m 6,4 km/h (2 Bft) 93,62 %
19.08.2019 19:38 21,8 C 20,6 C 19,4 C 59 % 1017,2 hPa 0,0 l/m 0 min 0 min 44 W/m 6,4 km/h (2 Bft) 95,74 %
19.08.2019 19:40 21,8 C 20,0 C 19,4 C 59 % 1017,3 hPa 0,0 l/m 0 min 0 min 47 W/m 6,4 km/h (2 Bft) 95,74 %
19.08.2019 19:42 21,7 C 20,0 C 19,4 C 61 % 1017,2 hPa 0,0 l/m 0 min 0 min 48 W/m 6,4 km/h (2 Bft) 97,92 %
19.08.2019 19:44 21,6 C 20,0 C 19,4 C 61 % 1017,3 hPa 0,0 l/m 0 min 0 min 52 W/m 6,4 km/h (2 Bft) 93,62 %
19.08.2019 19:46 21,6 C 20,0 C 19,4 C 61 % 1017,3 hPa 0,0 l/m 0 min 0 min 57 W/m 6,4 km/h (2 Bft) 95,74 %
19.08.2019 19:48 21,5 C 20,0 C 19,4 C 61 % 1017,3 hPa 0,0 l/m 0 min 0 min 60 W/m 6,4 km/h (2 Bft) 97,87 %
19.08.2019 19:50 21,4 C 20,0 C 19,4 C 62 % 1017,3 hPa 0,0 l/m 0 min 0 min 59 W/m 9,7 km/h (2 Bft) 97,87 %
19.08.2019 19:52 21,4 C 20,0 C 19,4 C 62 % 1017,3 hPa 0,0 l/m 0 min 0 min 54 W/m 6,4 km/h (2 Bft) 97,87 %
19.08.2019 19:53 21,3 C 20,0 C 19,4 C 62 % 1017,3 hPa 0,0 l/m 0 min 0 min 49 W/m 9,7 km/h (2 Bft) 97,83 %
19.08.2019 19:56 21,3 C 20,0 C 19,4 C 62 % 1017,3 hPa 0,0 l/m 0 min 0 min 47 W/m 6,4 km/h (2 Bft) 97,87 %
19.08.2019 19:58 21,2 C 20,0 C 19,4 C 63 % 1017,3 hPa 0,0 l/m 0 min 0 min 46 W/m 6,4 km/h (2 Bft) 94,92 %
19.08.2019 20:00 21,2 C 20,0 C 19,4 C 63 % 1017,3 hPa 0,0 l/m 0 min 0 min 39 W/m 9,7 km/h (2 Bft) 100,00 %
19.08.2019 20:02 21,1 C 19,4 C 18,9 C 63 % 1017,3 hPa 0,0 l/m 0 min 0 min 33 W/m 6,4 km/h (2 Bft) 95,74 %
19.08.2019 20:04 21,1 C 19,4 C 18,9 C 64 % 1017,3 hPa 0,0 l/m 0 min 0 min 30 W/m 6,4 km/h (2 Bft) 98,28 %
19.08.2019 20:06 21,0 C 19,4 C 18,9 C 64 % 1017,4 hPa 0,0 l/m 0 min 0 min 28 W/m 6,4 km/h (2 Bft) 97,87 %
19.08.2019 20:08 21,0 C 18,9 C 18,9 C 64 % 1017,4 hPa 0,0 l/m 0 min 0 min 26 W/m 6,4 km/h (2 Bft) 97,87 %
19.08.2019 20:10 20,9 C 18,9 C 18,9 C 64 % 1017,4 hPa 0,0 l/m 0 min 0 min 25 W/m 6,4 km/h (2 Bft) 97,87 %
19.08.2019 20:12 20,8 C 18,9 C 18,9 C 64 % 1017,4 hPa 0,0 l/m 0 min 0 min 25 W/m 16,1 km/h (3 Bft) 97,87 %
19.08.2019 20:14 20,8 C 18,9 C 18,9 C 64 % 1017,4 hPa 0,0 l/m 0 min 0 min 25 W/m 6,4 km/h (2 Bft) 93,48 %
19.08.2019 20:16 20,7 C 18,9 C 18,9 C 65 % 1017,5 hPa 0,0 l/m 0 min 0 min 23 W/m 9,7 km/h (2 Bft) 95,74 %
19.08.2019 20:18 20,6 C 18,9 C 18,3 C 65 % 1017,5 hPa 0,0 l/m 0 min 0 min 20 W/m 6,4 km/h (2 Bft) 97,14 %
19.08.2019 20:20 20,6 C 18,9 C 18,3 C 65 % 1017,5 hPa 0,0 l/m 0 min 0 min 19 W/m 9,7 km/h (2 Bft) 98,31 %
19.08.2019 20:22 20,5 C 18,3 C 18,3 C 66 % 1017,6 hPa 0,0 l/m 0 min 0 min 18 W/m 6,4 km/h (2 Bft) 97,87 %
19.08.2019 20:24 20,4 C 18,3 C 18,3 C 65 % 1017,6 hPa 0,0 l/m 0 min 0 min 16 W/m 6,4 km/h (2 Bft) 100,00 %
19.08.2019 20:26 20,4 C 18,3 C 18,3 C 66 % 1017,5 hPa 0,0 l/m 0 min 0 min 15 W/m 3,2 km/h (1 Bft) 94,83 %
19.08.2019 20:28 20,3 C 18,3 C 17,8 C 66 % 1017,5 hPa 0,0 l/m 0 min 0 min 14 W/m 3,2 km/h (1 Bft) 100,00 %
19.08.2019 20:30 20,3 C 18,3 C 17,8 C 66 % 1017,6 hPa 0,0 l/m 0 min 0 min 12 W/m 3,2 km/h (1 Bft) 97,87 %
19.08.2019 20:32 20,2 C 17,8 C 17,8 C 67 % 1017,6 hPa 0,0 l/m 0 min 0 min 11 W/m 3,2 km/h (1 Bft) 97,87 %
19.08.2019 20:34 20,2 C 17,8 C 17,8 C 67 % 1017,7 hPa 0,0 l/m 0 min 0 min 11 W/m 3,2 km/h (1 Bft) 97,87 %
19.08.2019 20:36 20,1 C 17,8 C 17,8 C 67 % 1017,7 hPa 0,0 l/m 0 min 0 min 9 W/m 3,2 km/h (1 Bft) 96,55 %
19.08.2019 20:38 20,1 C 17,8 C 17,2 C 67 % 1017,6 hPa 0,0 l/m 0 min 0 min 9 W/m 3,2 km/h (1 Bft) 97,87 %
19.08.2019 20:40 20,0 C 17,8 C 17,2 C 67 % 1017,6 hPa 0,0 l/m 0 min 0 min 7 W/m 0,0 km/h (0 Bft) 94,29 %
19.08.2019 20:42 19,9 C 17,2 C 17,2 C 67 % 1017,8 hPa 0,0 l/m 0 min 0 min 6 W/m 3,2 km/h (1 Bft) 100,00 %
19.08.2019 20:44 19,9 C 17,2 C 16,7 C 67 % 1017,8 hPa 0,0 l/m 0 min 0 min 5 W/m 3,2 km/h (1 Bft) 95,74 %
19.08.2019 20:46 19,8 C 17,2 C 16,7 C 68 % 1017,8 hPa 0,0 l/m 0 min 0 min 1 W/m 3,2 km/h (1 Bft) 97,87 %
19.08.2019 20:48 19,7 C 17,2 C 16,7 C 68 % 1017,8 hPa 0,0 l/m 0 min 0 min 0 W/m 3,2 km/h (1 Bft) 97,14 %
19.08.2019 20:50 19,7 C 17,2 C 16,7 C 69 % 1017,9 hPa 0,0 l/m 0 min 0 min 0 W/m 3,2 km/h (1 Bft) 94,83 %
19.08.2019 20:52 19,6 C 17,2 C 16,7 C 69 % 1017,9 hPa 0,0 l/m 0 min 0 min 0 W/m 3,2 km/h (1 Bft) 100,00 %
19.08.2019 20:54 19,5 C 16,7 C 16,7 C 69 % 1017,9 hPa 0,0 l/m 0 min 0 min 0 W/m 3,2 km/h (1 Bft) 96,61 %
19.08.2019 20:56 19,4 C 16,7 C 16,7 C 69 % 1018,0 hPa 0,0 l/m 0 min 0 min 0 W/m 0,0 km/h (0 Bft) 100,00 %
19.08.2019 20:58 19,4 C 17,2 C 16,7 C 69 % 1018,0 hPa 0,0 l/m 0 min 0 min 0 W/m 3,2 km/h (1 Bft) 93,22 %
19.08.2019 21:00 19,3 C 17,2 C 16,7 C 69 % 1018,1 hPa 0,0 l/m 0 min 0 min 0 W/m 3,2 km/h (1 Bft) 97,83 %
19.08.2019 21:02 19,3 C 17,2 C 16,7 C 69 % 1018,0 hPa 0,0 l/m 0 min 0 min 0 W/m 3,2 km/h (1 Bft) 97,87 %
19.08.2019 21:04 19,2 C 17,2 C 16,7 C 70 % 1018,1 hPa 0,0 l/m 0 min 0 min 0 W/m 3,2 km/h (1 Bft) 97,87 %
19.08.2019 21:06 19,2 C 17,2 C 16,7 C 70 % 1018,1 hPa 0,0 l/m 0 min 0 min 0 W/m 3,2 km/h (1 Bft) 95,74 %
19.08.2019 21:08 19,1 C 17,2 C 16,7 C 70 % 1018,2 hPa 0,0 l/m 0 min 0 min 0 W/m 6,4 km/h (2 Bft) 95,74 %
19.08.2019 21:10 19,1 C 17,2 C 16,7 C 70 % 1018,2 hPa 0,0 l/m 0 min 0 min 0 W/m 3,2 km/h (1 Bft) 97,14 %
19.08.2019 21:12 19,0 C 17,8 C 17,2 C 70 % 1018,2 hPa 0,0 l/m 0 min 0 min 0 W/m 3,2 km/h (1 Bft) 100,00 %
19.08.2019 21:14 18,9 C 17,2 C 17,2 C 70 % 1018,3 hPa 0,0 l/m 0 min 0 min 0 W/m 6,4 km/h (2 Bft) 100,00 %
19.08.2019 21:16 18,9 C 17,2 C 17,2 C 71 % 1018,3 hPa 0,0 l/m 0 min 0 min 0 W/m 9,7 km/h (2 Bft) 100,00 %
19.08.2019 21:18 18,9 C 17,8 C 17,2 C 71 % 1018,3 hPa 0,0 l/m 0 min 0 min 0 W/m 9,7 km/h (2 Bft) 100,00 %
19.08.2019 21:20 18,8 C 17,8 C 17,2 C 71 % 1018,3 hPa 0,0 l/m 0 min 0 min 0 W/m 9,7 km/h (2 Bft) 100,00 %
19.08.2019 21:22 18,8 C 17,8 C 17,2 C 70 % 1018,3 hPa 0,0 l/m 0 min 0 min 0 W/m 9,7 km/h (2 Bft) 100,00 %
19.08.2019 21:24 18,8 C 17,8 C 17,2 C 71 % 1018,4 hPa 0,0 l/m 0 min 0 min 0 W/m 6,4 km/h (2 Bft) 100,00 %
19.08.2019 21:26 18,8 C 16,7 C 16,7 C 71 % 1018,3 hPa 0,0 l/m 0 min 2 min 0 W/m 6,4 km/h (2 Bft) 100,00 %
19.08.2019 21:28 18,8 C 16,1 C 16,1 C 72 % 1018,4 hPa 0,0 l/m 0 min 2 min 0 W/m 6,4 km/h (2 Bft) 100,00 %
19.08.2019 21:30 18,8 C 16,1 C 15,0 C 73 % 1018,4 hPa 0,0 l/m 0 min 2 min 0 W/m 6,4 km/h (2 Bft) 100,00 %
19.08.2019 21:32 18,7 C 16,1 C 15,0 C 73 % 1018,4 hPa 0,0 l/m 0 min 2 min 0 W/m 6,4 km/h (2 Bft) 100,00 %
19.08.2019 21:34 18,7 C 16,1 C 15,0 C 73 % 1018,4 hPa 0,0 l/m 0 min 0 min 0 W/m 6,4 km/h (2 Bft) 100,00 %
19.08.2019 21:36 18,7 C 16,7 C 15,6 C 73 % 1018,3 hPa 0,0 l/m 0 min 0 min 0 W/m 6,4 km/h (2 Bft) 100,00 %
19.08.2019 21:38 18,7 C 16,7 C 15,6 C 73 % 1018,4 hPa 0,0 l/m 0 min 0 min 0 W/m 6,4 km/h (2 Bft) 100,00 %
19.08.2019 21:40 18,6 C 16,7 C 16,1 C 74 % 1018,4 hPa 0,0 l/m 0 min 0 min 0 W/m 3,2 km/h (1 Bft) 100,00 %
19.08.2019 21:42 18,6 C 16,7 C 16,1 C 74 % 1018,4 hPa 0,0 l/m 0 min 0 min 0 W/m 3,2 km/h (1 Bft) 100,00 %
19.08.2019 21:44 18,6 C 16,7 C 16,1 C 74 % 1018,4 hPa 0,0 l/m 0 min 0 min 0 W/m 3,2 km/h (1 Bft) 100,00 %
19.08.2019 21:46 18,6 C 16,7 C 16,1 C 74 % 1018,5 hPa 0,0 l/m 0 min 0 min 0 W/m 0,0 km/h (0 Bft) 98,28 %
19.08.2019 21:48 18,6 C 16,7 C 16,1 C 74 % 1018,5 hPa 0,0 l/m 0 min 0 min 0 W/m 3,2 km/h (1 Bft) 97,87 %
19.08.2019 21:50 18,6 C 16,7 C 16,1 C 74 % 1018,5 hPa 0,0 l/m 0 min 0 min 0 W/m 3,2 km/h (1 Bft) 100,00 %
19.08.2019 21:52 18,5 C 16,7 C 16,1 C 74 % 1018,5 hPa 0,0 l/m 0 min 0 min 0 W/m 3,2 km/h (1 Bft) 100,00 %
19.08.2019 21:54 18,5 C 16,7 C 16,1 C 75 % 1018,5 hPa 0,0 l/m 0 min 0 min 0 W/m 3,2 km/h (1 Bft) 100,00 %
19.08.2019 21:56 18,4 C 16,7 C 16,1 C 75 % 1018,5 hPa 0,0 l/m 0 min 0 min 0 W/m 3,2 km/h (1 Bft) 98,31 %
19.08.2019 21:58 18,4 C 16,1 C 15,6 C 75 % 1018,5 hPa 0,0 l/m 0 min 0 min 0 W/m 3,2 km/h (1 Bft) 100,00 %
19.08.2019 22:00 18,4 C 16,1 C 15,6 C 75 % 1018,5 hPa 0,0 l/m 0 min 0 min 0 W/m 3,2 km/h (1 Bft) 100,00 %
19.08.2019 22:02 18,3 C 16,1 C 15,6 C 75 % 1018,5 hPa 0,0 l/m 0 min 0 min 0 W/m 3,2 km/h (1 Bft) 100,00 %
19.08.2019 22:04 18,3 C 16,1 C 15,6 C 75 % 1018,6 hPa 0,0 l/m 0 min 0 min 0 W/m 3,2 km/h (1 Bft) 100,00 %
19.08.2019 22:06 18,2 C 16,1 C 15,6 C 75 % 1018,5 hPa 0,0 l/m 0 min 0 min 0 W/m 3,2 km/h (1 Bft) 100,00 %
19.08.2019 22:08 18,2 C 16,1 C 15,6 C 75 % 1018,5 hPa 0,0 l/m 0 min 0 min 0 W/m 3,2 km/h (1 Bft) 100,00 %
19.08.2019 22:10 18,2 C 16,1 C 15,6 C 76 % 1018,6 hPa 0,0 l/m 0 min 0 min 0 W/m 3,2 km/h (1 Bft) 100,00 %
19.08.2019 22:12 18,1 C 15,6 C 15,0 C 76 % 1018,5 hPa 0,0 l/m 0 min 0 min 0 W/m 0,0 km/h (0 Bft) 100,00 %
19.08.2019 22:14 18,1 C 15,6 C 15,0 C 76 % 1018,5 hPa 0,0 l/m 0 min 0 min 0 W/m 3,2 km/h (1 Bft) 100,00 %
19.08.2019 22:16 18,1 C 15,6 C 15,0 C 76 % 1018,5 hPa 0,0 l/m 0 min 0 min 0 W/m 3,2 km/h (1 Bft) 100,00 %
19.08.2019 22:18 18,0 C 15,6 C 15,0 C 76 % 1018,5 hPa 0,0 l/m 0 min 0 min 0 W/m 3,2 km/h (1 Bft) 100,00 %
19.08.2019 22:20 17,9 C 15,6 C 15,0 C 76 % 1018,7 hPa 0,0 l/m 0 min 0 min 0 W/m 3,2 km/h (1 Bft) 100,00 %
19.08.2019 22:22 17,9 C 15,6 C 15,0 C 77 % 1018,6 hPa 0,0 l/m 0 min 0 min 0 W/m 0,0 km/h (0 Bft) 97,87 %
19.08.2019 22:24 17,8 C 15,6 C 15,0 C 77 % 1018,5 hPa 0,0 l/m 0 min 0 min 0 W/m 3,2 km/h (1 Bft) 95,74 %
19.08.2019 22:26 17,8 C 15,6 C 15,0 C 77 % 1018,6 hPa 0,0 l/m 0 min 0 min 0 W/m 3,2 km/h (1 Bft) 95,74 %
19.08.2019 22:28 17,7 C 15,6 C 14,4 C 77 % 1018,6 hPa 0,0 l/m 0 min 0 min 0 W/m 0,0 km/h (0 Bft) 95,65 %
19.08.2019 22:30 17,7 C 15,0 C 14,4 C 77 % 1018,6 hPa 0,0 l/m 0 min 0 min 0 W/m 0,0 km/h (0 Bft) 95,74 %
19.08.2019 22:32 17,7 C 15,0 C 14,4 C 77 % 1018,7 hPa 0,0 l/m 0 min 0 min 0 W/m 0,0 km/h (0 Bft) 95,74 %
19.08.2019 22:34 17,6 C 15,0 C 14,4 C 77 % 1018,6 hPa 0,0 l/m 0 min 0 min 0 W/m 0,0 km/h (0 Bft) 93,62 %
19.08.2019 22:36 17,6 C 15,0 C 14,4 C 77 % 1018,8 hPa 0,0 l/m 0 min 0 min 0 W/m 3,2 km/h (1 Bft) 93,62 %
19.08.2019 22:38 17,5 C 15,0 C 14,4 C 77 % 1018,8 hPa 0,0 l/m 0 min 0 min 0 W/m 0,0 km/h (0 Bft) 91,49 %
19.08.2019 22:40 17,4 C 15,0 C 14,4 C 77 % 1018,7 hPa 0,0 l/m 0 min 0 min 0 W/m 3,2 km/h (1 Bft) 95,65 %
19.08.2019 22:42 17,4 C 15,0 C 14,4 C 78 % 1018,8 hPa 0,0 l/m 0 min 0 min 0 W/m 3,2 km/h (1 Bft) 95,74 %
19.08.2019 22:44 17,3 C 15,0 C 15,0 C 78 % 1018,8 hPa 0,0 l/m 0 min 0 min 0 W/m 9,7 km/h (2 Bft) 93,62 %
19.08.2019 22:46 17,3 C 15,6 C 15,0 C 78 % 1018,8 hPa 0,0 l/m 0 min 0 min 0 W/m 6,4 km/h (2 Bft) 95,74 %
19.08.2019 22:48 17,2 C 15,6 C 15,0 C 79 % 1018,9 hPa 0,0 l/m 0 min 0 min 0 W/m 6,4 km/h (2 Bft) 95,74 %
19.08.2019 22:50 17,2 C 15,6 C 15,0 C 79 % 1018,9 hPa 0,0 l/m 0 min 0 min 0 W/m 3,2 km/h (1 Bft) 93,48 %
19.08.2019 22:52 17,1 C 15,6 C 15,0 C 79 % 1018,9 hPa 0,0 l/m 0 min 0 min 0 W/m 0,0 km/h (0 Bft) 95,74 %
19.08.2019 22:54 17,1 C 15,6 C 15,0 C 79 % 1018,9 hPa 0,0 l/m 0 min 0 min 0 W/m 3,2 km/h (1 Bft) 93,62 %
19.08.2019 22:56 17,0 C 15,6 C 15,0 C 79 % 1018,9 hPa 0,0 l/m 0 min 0 min 0 W/m 3,2 km/h (1 Bft) 91,49 %
19.08.2019 22:58 17,0 C 15,6 C 15,0 C 79 % 1018,9 hPa 0,0 l/m 0 min 0 min 0 W/m 6,4 km/h (2 Bft) 95,74 %
19.08.2019 23:00 16,9 C 15,6 C 15,0 C 79 % 1019,0 hPa 0,0 l/m 0 min 0 min 0 W/m 6,4 km/h (2 Bft) 93,62 %
19.08.2019 23:02 16,9 C 15,6 C 15,0 C 79 % 1019,0 hPa 0,0 l/m 0 min 0 min 0 W/m 6,4 km/h (2 Bft) 91,49 %
19.08.2019 23:04 16,8 C 15,6 C 15,0 C 79 % 1019,0 hPa 0,0 l/m 0 min 0 min 0 W/m 3,2 km/h (1 Bft) 93,48 %
19.08.2019 23:06 16,8 C 15,6 C 15,0 C 79 % 1019,1 hPa 0,0 l/m 0 min 0 min 0 W/m 3,2 km/h (1 Bft) 93,62 %
19.08.2019 23:08 16,8 C 15,6 C 15,0 C 79 % 1019,1 hPa 0,0 l/m 0 min 0 min 0 W/m 3,2 km/h (1 Bft) 93,62 %
19.08.2019 23:10 16,7 C 15,6 C 15,0 C 79 % 1019,1 hPa 0,0 l/m 0 min 0 min 0 W/m 0,0 km/h (0 Bft) 93,62 %
19.08.2019 23:12 16,7 C 15,6 C 15,0 C 80 % 1019,1 hPa 0,0 l/m 0 min 0 min 0 W/m 3,2 km/h (1 Bft) 91,49 %
19.08.2019 23:14 16,7 C 15,6 C 15,0 C 80 % 1019,1 hPa 0,0 l/m 0 min 0 min 0 W/m 6,4 km/h (2 Bft) 91,30 %
19.08.2019 23:16 16,7 C 15,6 C 15,0 C 80 % 1019,2 hPa 0,0 l/m 0 min 0 min 0 W/m 9,7 km/h (2 Bft) 93,62 %
19.08.2019 23:18 16,6 C 15,6 C 15,0 C 80 % 1019,2 hPa 0,0 l/m 0 min 0 min 0 W/m 6,4 km/h (2 Bft) 91,49 %
19.08.2019 23:20 16,6 C 15,6 C 15,0 C 80 % 1019,2 hPa 0,0 l/m 0 min 0 min 0 W/m 6,4 km/h (2 Bft) 95,74 %
19.08.2019 23:22 16,6 C 15,6 C 15,0 C 80 % 1019,2 hPa 0,0 l/m 0 min 0 min 0 W/m 9,7 km/h (2 Bft) 95,74 %
19.08.2019 23:24 16,6 C 15,6 C 15,0 C 80 % 1019,2 hPa 0,0 l/m 0 min 0 min 0 W/m 9,7 km/h (2 Bft) 93,62 %
19.08.2019 23:26 16,5 C 15,6 C 15,0 C 80 % 1019,2 hPa 0,0 l/m 0 min 0 min 0 W/m 9,7 km/h (2 Bft) 89,13 %
19.08.2019 23:28 16,5 C 15,6 C 15,0 C 80 % 1019,3 hPa 0,0 l/m 0 min 0 min 0 W/m 9,7 km/h (2 Bft) 95,74 %
19.08.2019 23:30 16,4 C 15,6 C 15,0 C 81 % 1019,3 hPa 0,0 l/m 0 min 0 min 0 W/m 9,7 km/h (2 Bft) 95,74 %
19.08.2019 23:32 16,4 C 15,6 C 15,0 C 80 % 1019,3 hPa 0,0 l/m 0 min 0 min 0 W/m 9,7 km/h (2 Bft) 97,87 %
19.08.2019 23:34 16,4 C 15,6 C 15,0 C 80 % 1019,3 hPa 0,0 l/m 0 min 0 min 0 W/m 12,9 km/h (3 Bft) 95,74 %
19.08.2019 23:36 16,4 C 15,6 C 15,6 C 80 % 1019,3 hPa 0,0 l/m 0 min 0 min 0 W/m 9,7 km/h (2 Bft) 97,87 %
19.08.2019 23:38 16,4 C 15,6 C 15,0 C 81 % 1019,3 hPa 0,0 l/m 0 min 0 min 0 W/m 9,7 km/h (2 Bft) 97,83 %
19.08.2019 23:40 16,4 C 15,6 C 15,0 C 81 % 1019,3 hPa 0,0 l/m 0 min 0 min 0 W/m 6,4 km/h (2 Bft) 97,87 %
19.08.2019 23:42 16,4 C 15,6 C 15,0 C 81 % 1019,4 hPa 0,0 l/m 0 min 0 min 0 W/m 9,7 km/h (2 Bft) 100,00 %
19.08.2019 23:44 16,4 C 15,6 C 15,0 C 81 % 1019,4 hPa 0,0 l/m 0 min 0 min 0 W/m 9,7 km/h (2 Bft) 100,00 %
19.08.2019 23:46 16,4 C 15,6 C 15,0 C 81 % 1019,5 hPa 0,0 l/m 0 min 0 min 0 W/m 6,4 km/h (2 Bft) 100,00 %
19.08.2019 23:48 16,4 C 15,0 C 15,0 C 81 % 1019,5 hPa 0,0 l/m 0 min 0 min 0 W/m 6,4 km/h (2 Bft) 100,00 %
19.08.2019 23:50 16,3 C 15,0 C 15,0 C 81 % 1019,6 hPa 0,0 l/m 0 min 0 min 0 W/m 6,4 km/h (2 Bft) 100,00 %
19.08.2019 23:52 16,3 C 15,0 C 15,0 C 81 % 1019,6 hPa 0,0 l/m 0 min 0 min 0 W/m 3,2 km/h (1 Bft) 100,00 %
19.08.2019 23:54 16,3 C 15,0 C 15,0 C 81 % 1019,6 hPa 0,0 l/m 0 min 0 min 0 W/m 6,4 km/h (2 Bft) 100,00 %
19.08.2019 23:56 16,3 C 15,0 C 15,0 C 81 % 1019,6 hPa 0,0 l/m 0 min 0 min 0 W/m 6,4 km/h (2 Bft) 100,00 %
19.08.2019 23:58 16,3 C 15,0 C 15,0 C 81 % 1019,6 hPa 0,0 l/m 0 min 0 min 0 W/m 9,7 km/h (2 Bft) 100,00 %
_ Min-Zeit 07:00 06:28 05:06 17:54 07:30 - - - - 20:40 23:26
Minimum _ 13,2 C 12,2 C 12,2 C 52 % 1014,4 hPa - - - - 0,0 km/h (0 Bft) 89,13 %
_ Max-Zeit 17:54 15:26 14:04 07:38 23:50 00:00 18:08 21:26 13:20 14:42 00:12
Maximum _ 23,8 C 28,9 C 27,8 C 92 % 1019,6 hPa 0,0 l/m 4 min 2 min 1069 W/m 35,4 km/h
SO (5 Bft)
100,00 %
Durchschnitt _ 18,2 C 18,7 C 17,4 C 74 % 1016,3 hPa #0,0 l/m #6:40 h #8 min. 352 W/m 12,4 km/h (3 Bft) 97,52 %
© 2019 W. Hausmann